Time,TemperatureF,DewpointF,PressureIn,WindDirection,WindDirectionDegrees,WindSpeedMPH,WindSpeedGustMPH,Humidity,HourlyPrecipIn,Conditions,Clouds,dailyrainin,SoftwareType,DateUTC
2013-02-11 00:00:00,59.5,36.4,29.93,NNE,14,0.0,0.0,42,0.00,,,0.04,Wunderground v.1.15,2013-02-11 06:00:00,
2013-02-11 00:01:00,59.5,36.4,29.93,NNE,14,0.0,0.0,42,0.00,,,0.04,Wunderground v.1.15,2013-02-11 06:01:00,
2013-02-11 00:05:00,59.3,37.4,29.93,NNE,14,0.0,0.0,44,0.00,,,0.00,Wunderground v.1.15,2013-02-11 06:05:00,
2013-02-11 00:06:00,59.3,37.4,29.93,NNE,14,0.0,0.0,44,0.00,,,0.00,Wunderground v.1.15,2013-02-11 06:06:00,
2013-02-11 00:07:00,59.3,37.4,29.93,NNE,14,0.0,0.0,44,0.00,,,0.00,Wunderground v.1.15,2013-02-11 06:07:00,
2013-02-11 00:08:00,59.3,37.4,29.93,NNE,14,0.0,0.0,44,0.00,,,0.00,Wunderground v.1.15,2013-02-11 06:08:00,
2013-02-11 00:11:00,59.3,37.4,29.93,NNE,14,0.0,0.0,44,0.00,,,0.00,Wunderground v.1.15,2013-02-11 06:11:00,
2013-02-11 00:13:00,59.2,37.9,29.93,NNE,14,0.0,0.0,45,0.00,,,0.00,Wunderground v.1.15,2013-02-11 06:13:00,
2013-02-11 00:14:00,59.2,37.9,29.93,NNE,14,0.0,0.0,45,0.00,,,0.00,Wunderground v.1.15,2013-02-11 06:14:00,
2013-02-11 00:15:00,59.2,37.9,29.93,NNE,14,0.0,0.0,45,0.00,,,0.00,Wunderground v.1.15,2013-02-11 06:15:00,
2013-02-11 00:17:00,59.2,37.9,29.94,NNE,14,0.0,0.0,45,0.00,,,0.00,Wunderground v.1.15,2013-02-11 06:17:00,
2013-02-11 00:18:00,59.2,37.9,29.94,NNE,14,0.0,0.0,45,0.00,,,0.00,Wunderground v.1.15,2013-02-11 06:18:00,
2013-02-11 00:21:00,59.0,37.7,29.94,NNE,14,0.0,0.0,45,0.00,,,0.00,Wunderground v.1.15,2013-02-11 06:21:00,
2013-02-11 00:24:00,59.0,37.7,29.94,NNE,14,0.0,0.0,45,0.00,,,0.00,Wunderground v.1.15,2013-02-11 06:24:00,
2013-02-11 00:27:00,59.0,37.7,29.94,NNE,14,0.0,0.0,45,0.00,,,0.00,Wunderground v.1.15,2013-02-11 06:27:00,
2013-02-11 00:29:00,59.0,37.7,29.94,NNE,14,0.0,0.0,45,0.00,,,0.00,Wunderground v.1.15,2013-02-11 06:29:00,
2013-02-11 00:30:00,59.0,38.2,29.94,NNE,14,0.0,0.0,46,0.00,,,0.00,Wunderground v.1.15,2013-02-11 06:30:00,
2013-02-11 00:31:00,59.0,38.2,29.94,NNE,14,0.0,0.0,46,0.00,,,0.00,Wunderground v.1.15,2013-02-11 06:31:00,
2013-02-11 00:34:00,58.9,38.1,29.94,NNE,14,0.0,0.0,46,0.00,,,0.00,Wunderground v.1.15,2013-02-11 06:34:00,
2013-02-11 00:36:00,58.9,38.1,29.94,NNE,14,0.0,0.0,46,0.00,,,0.00,Wunderground v.1.15,2013-02-11 06:36:00,
2013-02-11 00:37:00,58.9,38.7,29.94,NNE,14,0.0,0.0,47,0.00,,,0.00,Wunderground v.1.15,2013-02-11 06:37:00,
2013-02-11 00:39:00,58.9,38.7,29.94,NNE,14,0.0,0.0,47,0.00,,,0.00,Wunderground v.1.15,2013-02-11 06:39:00,
2013-02-11 00:44:00,58.7,39.0,29.94,NNE,14,0.0,0.0,48,0.00,,,0.00,Wunderground v.1.15,2013-02-11 06:44:00,
2013-02-11 00:45:00,58.7,39.0,29.94,NNE,14,0.0,1.0,48,0.00,,,0.00,Wunderground v.1.15,2013-02-11 06:45:00,
2013-02-11 00:46:00,58.7,39.6,29.92,NNE,14,0.0,3.0,49,0.00,,,0.00,Wunderground v.1.15,2013-02-11 06:46:00,
2013-02-11 00:48:00,58.6,40.5,29.92,NNE,14,1.0,3.0,51,0.00,,,0.00,Wunderground v.1.15,2013-02-11 06:48:00,
2013-02-11 00:53:00,58.3,41.2,29.92,North,11,2.0,3.0,53,0.00,,,0.00,Wunderground v.1.15,2013-02-11 06:53:00,
2013-02-11 00:54:00,58.3,41.2,29.92,North,11,2.0,3.0,53,0.00,,,0.00,Wunderground v.1.15,2013-02-11 06:54:00,
2013-02-11 00:55:00,58.1,41.0,29.92,North,11,2.0,3.0,53,0.00,,,0.00,Wunderground v.1.15,2013-02-11 06:55:00,
2013-02-11 00:57:00,58.0,41.0,29.92,North,11,2.0,3.0,53,0.00,,,0.00,Wunderground v.1.15,2013-02-11 06:57:00,
2013-02-11 01:00:00,57.6,41.1,29.90,NNE,16,2.0,2.0,54,0.00,,,0.00,Wunderground v.1.15,2013-02-11 07:00:00,
2013-02-11 01:02:00,57.5,41.4,29.90,NNE,16,2.0,2.0,55,0.00,,,0.00,Wunderground v.1.15,2013-02-11 07:02:00,
2013-02-11 01:03:00,57.5,41.4,29.90,NNE,16,2.0,2.0,55,0.00,,,0.00,Wunderground v.1.15,2013-02-11 07:03:00,
2013-02-11 01:04:00,57.3,41.3,29.90,NNE,16,2.0,3.0,55,0.00,,,0.00,Wunderground v.1.15,2013-02-11 07:04:00,
2013-02-11 01:08:00,57.2,41.6,29.90,NNE,20,2.0,3.0,56,0.00,,,0.00,Wunderground v.1.15,2013-02-11 07:08:00,
2013-02-11 01:09:00,57.0,41.4,29.90,NNE,20,2.0,3.0,56,0.00,,,0.00,Wunderground v.1.15,2013-02-11 07:09:00,
2013-02-11 01:10:00,56.9,41.8,29.90,NNE,21,2.0,4.0,57,0.00,,,0.00,Wunderground v.1.15,2013-02-11 07:10:00,
2013-02-11 01:12:00,56.9,41.4,29.90,NNE,21,2.0,4.0,56,0.00,,,0.00,Wunderground v.1.15,2013-02-11 07:12:00,
2013-02-11 01:14:00,56.7,40.7,29.90,NNE,21,2.0,4.0,55,0.00,,,0.00,Wunderground v.1.15,2013-02-11 07:14:00,
2013-02-11 01:15:00,56.7,40.7,29.90,NNE,21,2.0,4.0,55,0.00,,,0.00,Wunderground v.1.15,2013-02-11 07:15:00,
2013-02-11 01:17:00,56.7,40.7,29.90,NNE,21,2.0,4.0,55,0.00,,,0.00,Wunderground v.1.15,2013-02-11 07:17:00,
2013-02-11 01:19:00,56.7,40.7,29.90,NNE,21,1.0,4.0,55,0.00,,,0.00,Wunderground v.1.15,2013-02-11 07:19:00,
2013-02-11 01:24:00,56.6,40.6,29.90,NNE,21,1.0,2.0,55,0.00,,,0.00,Wunderground v.1.15,2013-02-11 07:24:00,
2013-02-11 01:25:00,56.6,40.6,29.90,NNE,21,1.0,2.0,55,0.00,,,0.00,Wunderground v.1.15,2013-02-11 07:25:00,
2013-02-11 01:27:00,56.6,41.1,29.90,NNE,21,1.0,2.0,56,0.00,,,0.00,Wunderground v.1.15,2013-02-11 07:27:00,
2013-02-11 01:30:00,56.5,41.4,29.91,NNE,21,1.0,1.0,57,0.00,,,0.00,Wunderground v.1.15,2013-02-11 07:30:00,
2013-02-11 01:32:00,56.5,41.0,29.91,NNE,21,1.0,1.0,56,0.00,,,0.00,Wunderground v.1.15,2013-02-11 07:32:00,
2013-02-11 01:33:00,56.5,41.0,29.91,NNE,21,1.0,1.0,56,0.00,,,0.00,Wunderground v.1.15,2013-02-11 07:33:00,
2013-02-11 01:34:00,56.5,41.0,29.91,NNE,21,1.0,1.0,56,0.00,,,0.00,Wunderground v.1.15,2013-02-11 07:34:00,
2013-02-11 01:39:00,56.5,41.0,29.91,NNE,21,1.0,2.0,56,0.00,,,0.00,Wunderground v.1.15,2013-02-11 07:39:00,
2013-02-11 01:40:00,56.5,40.5,29.91,NNE,21,1.0,3.0,55,0.00,,,0.00,Wunderground v.1.15,2013-02-11 07:40:00,
2013-02-11 01:42:00,56.5,40.5,29.91,NNE,21,1.0,3.0,55,0.00,,,0.00,Wunderground v.1.15,2013-02-11 07:42:00,
2013-02-11 01:44:00,56.5,40.5,29.91,NNE,21,1.0,3.0,55,0.00,,,0.00,Wunderground v.1.15,2013-02-11 07:44:00,
2013-02-11 01:47:00,56.5,41.0,29.91,NNE,21,1.0,3.0,56,0.00,,,0.00,Wunderground v.1.15,2013-02-11 07:47:00,
2013-02-11 01:48:00,56.5,41.0,29.91,NNE,21,1.0,3.0,56,0.00,,,0.00,Wunderground v.1.15,2013-02-11 07:48:00,
2013-02-11 01:53:00,56.5,41.0,29.91,NNE,21,1.0,1.0,56,0.00,,,0.00,Wunderground v.1.15,2013-02-11 07:53:00,
2013-02-11 01:54:00,56.3,41.3,29.91,NNE,21,1.0,1.0,57,0.00,,,0.00,Wunderground v.1.15,2013-02-11 07:54:00,
2013-02-11 01:58:00,56.3,41.3,29.91,NNE,16,1.0,5.0,57,0.00,,,0.00,Wunderground v.1.15,2013-02-11 07:58:00,
2013-02-11 02:00:00,56.3,41.3,29.91,NNE,14,2.0,2.0,57,0.00,,,0.00,Wunderground v.1.15,2013-02-11 08:00:00,
2013-02-11 02:01:00,56.3,41.3,29.91,NNE,16,2.0,2.0,57,0.00,,,0.00,Wunderground v.1.15,2013-02-11 08:01:00,
2013-02-11 02:04:00,56.2,40.7,29.91,NNW,329,2.0,4.0,56,0.00,,,0.00,Wunderground v.1.15,2013-02-11 08:04:00,
2013-02-11 02:07:00,56.2,40.2,29.91,NNW,329,3.0,4.0,55,0.00,,,0.00,Wunderground v.1.15,2013-02-11 08:07:00,
2013-02-11 02:08:00,56.2,40.2,29.91,NNW,346,3.0,4.0,55,0.00,,,0.00,Wunderground v.1.15,2013-02-11 08:08:00,
2013-02-11 02:10:00,56.3,39.9,29.91,NNE,24,3.0,3.0,54,0.00,,,0.00,Wunderground v.1.15,2013-02-11 08:10:00,
2013-02-11 02:13:00,56.3,39.9,29.91,North,0,4.0,6.0,54,0.00,,,0.00,Wunderground v.1.15,2013-02-11 08:13:00,
2013-02-11 02:16:00,56.5,40.0,29.88,NNE,18,4.0,6.0,54,0.00,,,0.00,Wunderground v.1.15,2013-02-11 08:16:00,
2013-02-11 02:17:00,56.5,40.0,29.88,NNE,13,4.0,6.0,54,0.00,,,0.00,Wunderground v.1.15,2013-02-11 08:17:00,
2013-02-11 02:21:00,56.5,39.6,29.88,NNE,30,5.0,5.0,53,0.00,,,0.00,Wunderground v.1.15,2013-02-11 08:21:00,
2013-02-11 02:22:00,56.5,39.6,29.88,NNE,25,4.0,5.0,53,0.00,,,0.00,Wunderground v.1.15,2013-02-11 08:22:00,
2013-02-11 02:23:00,56.5,40.0,29.88,North,10,4.0,5.0,54,0.00,,,0.00,Wunderground v.1.15,2013-02-11 08:23:00,
2013-02-11 02:24:00,56.5,40.0,29.88,North,357,4.0,5.0,54,0.00,,,0.00,Wunderground v.1.15,2013-02-11 08:24:00,
2013-02-11 02:27:00,56.3,40.3,29.88,North,0,4.0,5.0,55,0.00,,,0.00,Wunderground v.1.15,2013-02-11 08:27:00,
2013-02-11 02:28:00,56.3,39.9,29.88,North,0,4.0,6.0,54,0.00,,,0.00,Wunderground v.1.15,2013-02-11 08:28:00,
2013-02-11 02:30:00,56.3,39.4,29.88,NNE,16,4.0,5.0,53,0.00,,,0.00,Wunderground v.1.15,2013-02-11 08:30:00,
2013-02-11 02:31:00,56.3,39.4,29.88,NNE,23,4.0,7.0,53,0.00,,,0.00,Wunderground v.1.15,2013-02-11 08:31:00,
2013-02-11 02:34:00,56.3,38.9,29.88,NE,44,5.0,7.0,52,0.00,,,0.00,Wunderground v.1.15,2013-02-11 08:34:00,
2013-02-11 02:36:00,56.3,38.9,29.88,NE,42,5.0,7.0,52,0.00,,,0.00,Wunderground v.1.15,2013-02-11 08:36:00,
2013-02-11 02:37:00,56.3,38.9,29.88,NE,55,5.0,7.0,52,0.00,,,0.00,Wunderground v.1.15,2013-02-11 08:37:00,
2013-02-11 02:40:00,56.3,39.4,29.88,NE,48,5.0,5.0,53,0.00,,,0.00,Wunderground v.1.15,2013-02-11 08:40:00,
2013-02-11 02:41:00,56.3,39.4,29.88,NE,48,5.0,5.0,53,0.00,,,0.00,Wunderground v.1.15,2013-02-11 08:41:00,
2013-02-11 02:42:00,56.3,38.9,29.88,NE,55,4.0,5.0,52,0.00,,,0.00,Wunderground v.1.15,2013-02-11 08:42:00,
2013-02-11 02:46:00,56.3,38.9,29.88,NE,56,4.0,5.0,52,0.00,,,0.00,Wunderground v.1.15,2013-02-11 08:46:00,
2013-02-11 02:47:00,56.3,38.9,29.88,NE,56,3.0,5.0,52,0.00,,,0.00,Wunderground v.1.15,2013-02-11 08:47:00,
2013-02-11 02:48:00,56.3,38.9,29.88,NE,56,3.0,5.0,52,0.00,,,0.00,Wunderground v.1.15,2013-02-11 08:48:00,
2013-02-11 02:51:00,56.5,39.1,29.88,NE,56,3.0,3.0,52,0.00,,,0.00,Wunderground v.1.15,2013-02-11 08:51:00,
2013-02-11 02:52:00,56.5,39.1,29.88,ENE,59,3.0,5.0,52,0.00,,,0.00,Wunderground v.1.15,2013-02-11 08:52:00,
2013-02-11 02:55:00,56.5,39.1,29.88,ENE,73,3.0,5.0,52,0.00,,,0.00,Wunderground v.1.15,2013-02-11 08:55:00,
2013-02-11 02:56:00,56.5,39.6,29.88,ENE,73,3.0,5.0,53,0.00,,,0.00,Wunderground v.1.15,2013-02-11 08:56:00,
2013-02-11 02:57:00,56.5,39.6,29.88,ENE,73,3.0,5.0,53,0.00,,,0.00,Wunderground v.1.15,2013-02-11 08:57:00,
2013-02-11 03:00:00,56.3,39.4,29.88,ENE,73,3.0,3.0,53,0.00,,,0.00,Wunderground v.1.15,2013-02-11 09:00:00,
2013-02-11 03:02:00,56.3,39.9,29.89,NE,55,3.0,4.0,54,0.00,,,0.00,Wunderground v.1.15,2013-02-11 09:02:00,
2013-02-11 03:03:00,56.3,39.4,29.89,NNE,31,3.0,4.0,53,0.00,,,0.00,Wunderground v.1.15,2013-02-11 09:03:00,
2013-02-11 03:04:00,56.3,39.9,29.89,NNE,31,3.0,4.0,54,0.00,,,0.00,Wunderground v.1.15,2013-02-11 09:04:00,
2013-02-11 03:06:00,56.3,39.9,29.89,North,0,3.0,5.0,54,0.00,,,0.00,Wunderground v.1.15,2013-02-11 09:06:00,
2013-02-11 03:07:00,56.3,39.9,29.89,NNE,31,3.0,6.0,54,0.00,,,0.00,Wunderground v.1.15,2013-02-11 09:07:00,
2013-02-11 03:12:00,56.3,39.9,29.89,North,1,3.0,3.0,54,0.00,,,0.00,Wunderground v.1.15,2013-02-11 09:12:00,
2013-02-11 03:13:00,56.2,39.8,29.89,ENE,58,4.0,5.0,54,0.00,,,0.00,Wunderground v.1.15,2013-02-11 09:13:00,
2013-02-11 03:14:00,56.2,39.8,29.89,ENE,59,4.0,5.0,54,0.00,,,0.00,Wunderground v.1.15,2013-02-11 09:14:00,
2013-02-11 03:18:00,56.3,39.4,29.89,NE,49,3.0,5.0,53,0.00,,,0.00,Wunderground v.1.15,2013-02-11 09:18:00,
2013-02-11 03:20:00,56.2,39.3,29.89,NE,55,3.0,5.0,53,0.00,,,0.00,Wunderground v.1.15,2013-02-11 09:20:00,
2013-02-11 03:22:00,56.3,39.4,29.89,NE,48,3.0,5.0,53,0.00,,,0.00,Wunderground v.1.15,2013-02-11 09:22:00,
2013-02-11 03:26:00,56.3,38.9,29.89,NE,37,3.0,5.0,52,0.00,,,0.00,Wunderground v.1.15,2013-02-11 09:26:00,
2013-02-11 03:28:00,56.3,38.9,29.89,North,7,3.0,5.0,52,0.00,,,0.00,Wunderground v.1.15,2013-02-11 09:28:00,
2013-02-11 03:30:00,56.3,38.9,29.89,NE,54,3.0,3.0,52,0.00,,,0.00,Wunderground v.1.15,2013-02-11 09:30:00,
2013-02-11 03:31:00,56.3,38.9,29.89,NNE,21,3.0,4.0,52,0.00,,,0.00,Wunderground v.1.15,2013-02-11 09:31:00,
2013-02-11 03:33:00,56.3,38.9,29.89,NE,35,3.0,4.0,52,0.00,,,0.00,Wunderground v.1.15,2013-02-11 09:33:00,
2013-02-11 03:34:00,56.3,38.9,29.89,NE,35,3.0,4.0,52,0.00,,,0.00,Wunderground v.1.15,2013-02-11 09:34:00,
2013-02-11 03:35:00,56.3,38.9,29.89,NE,35,3.0,4.0,52,0.00,,,0.00,Wunderground v.1.15,2013-02-11 09:35:00,
2013-02-11 03:36:00,56.3,38.9,29.89,ENE,59,3.0,4.0,52,0.00,,,0.00,Wunderground v.1.15,2013-02-11 09:36:00,
2013-02-11 03:42:00,56.3,38.9,29.89,NNE,23,4.0,5.0,52,0.00,,,0.00,Wunderground v.1.15,2013-02-11 09:42:00,
2013-02-11 03:43:00,56.3,38.9,29.89,NE,48,4.0,5.0,52,0.00,,,0.00,Wunderground v.1.15,2013-02-11 09:43:00,
2013-02-11 03:45:00,56.3,38.9,29.89,ENE,75,4.0,5.0,52,0.00,,,0.00,Wunderground v.1.15,2013-02-11 09:45:00,
2013-02-11 03:50:00,56.3,38.9,29.87,ENE,66,4.0,4.0,52,0.00,,,0.00,Wunderground v.1.15,2013-02-11 09:50:00,
2013-02-11 03:51:00,56.3,38.9,29.87,East,93,4.0,7.0,52,0.00,,,0.00,Wunderground v.1.15,2013-02-11 09:51:00,
2013-02-11 03:52:00,56.3,38.9,29.87,NE,44,4.0,7.0,52,0.00,,,0.00,Wunderground v.1.15,2013-02-11 09:52:00,
2013-02-11 03:55:00,56.2,38.8,29.87,NE,47,4.0,7.0,52,0.00,,,0.00,Wunderground v.1.15,2013-02-11 09:55:00,
2013-02-11 03:56:00,56.2,38.8,29.87,NE,47,3.0,7.0,52,0.00,,,0.00,Wunderground v.1.15,2013-02-11 09:56:00,
2013-02-11 04:01:00,56.2,38.8,29.87,NE,55,3.0,6.0,52,0.00,,,0.00,Wunderground v.1.15,2013-02-11 10:01:00,
2013-02-11 04:02:00,56.2,38.8,29.87,NNE,30,3.0,6.0,52,0.00,,,0.00,Wunderground v.1.15,2013-02-11 10:02:00,
2013-02-11 04:04:00,56.2,38.8,29.87,NE,56,3.0,6.0,52,0.00,,,0.00,Wunderground v.1.15,2013-02-11 10:04:00,
2013-02-11 04:05:00,56.2,38.8,29.87,ENE,62,3.0,6.0,52,0.00,,,0.00,Wunderground v.1.15,2013-02-11 10:05:00,
2013-02-11 04:07:00,56.2,38.8,29.87,NE,38,3.0,6.0,52,0.00,,,0.00,Wunderground v.1.15,2013-02-11 10:07:00,
2013-02-11 04:10:00,56.2,38.8,29.87,NE,56,3.0,6.0,52,0.00,,,0.00,Wunderground v.1.15,2013-02-11 10:10:00,
2013-02-11 04:11:00,56.2,38.3,29.87,NE,42,3.0,6.0,51,0.00,,,0.00,Wunderground v.1.15,2013-02-11 10:11:00,
2013-02-11 04:14:00,56.3,38.4,29.87,ENE,59,4.0,6.0,51,0.00,,,0.00,Wunderground v.1.15,2013-02-11 10:14:00,
2013-02-11 04:18:00,56.3,37.9,29.87,NE,45,4.0,6.0,50,0.00,,,0.00,Wunderground v.1.15,2013-02-11 10:18:00,
2013-02-11 04:20:00,56.3,37.9,29.87,NE,55,4.0,4.0,50,0.00,,,0.00,Wunderground v.1.15,2013-02-11 10:20:00,
2013-02-11 04:22:00,56.3,37.9,29.87,ENE,59,4.0,5.0,50,0.00,,,0.00,Wunderground v.1.15,2013-02-11 10:22:00,
2013-02-11 04:26:00,56.5,38.1,29.87,NE,55,3.0,5.0,50,0.00,,,0.00,Wunderground v.1.15,2013-02-11 10:26:00,
2013-02-11 04:27:00,56.5,38.1,29.87,ENE,75,3.0,5.0,50,0.00,,,0.00,Wunderground v.1.15,2013-02-11 10:27:00,
2013-02-11 04:28:00,56.5,38.1,29.87,ENE,68,3.0,5.0,50,0.00,,,0.00,Wunderground v.1.15,2013-02-11 10:28:00,
2013-02-11 04:32:00,56.5,37.6,29.89,ENE,66,3.0,4.0,49,0.00,,,0.00,Wunderground v.1.15,2013-02-11 10:32:00,
2013-02-11 04:34:00,56.5,37.6,29.89,ENE,73,3.0,5.0,49,0.00,,,0.00,Wunderground v.1.15,2013-02-11 10:34:00,
2013-02-11 04:38:00,56.5,38.1,29.89,NE,48,3.0,5.0,50,0.00,,,0.00,Wunderground v.1.15,2013-02-11 10:38:00,
2013-02-11 04:41:00,56.5,38.1,29.89,NE,38,3.0,3.0,50,0.00,,,0.00,Wunderground v.1.15,2013-02-11 10:41:00,
2013-02-11 04:42:00,56.5,37.6,29.89,NE,40,3.0,3.0,49,0.00,,,0.00,Wunderground v.1.15,2013-02-11 10:42:00,
2013-02-11 04:43:00,56.5,37.6,29.89,ENE,75,3.0,3.0,49,0.00,,,0.00,Wunderground v.1.15,2013-02-11 10:43:00,
2013-02-11 04:46:00,56.3,37.4,29.89,ENE,66,3.0,7.0,49,0.00,,,0.00,Wunderground v.1.15,2013-02-11 10:46:00,
2013-02-11 04:48:00,56.3,37.4,29.89,NE,37,3.0,7.0,49,0.00,,,0.00,Wunderground v.1.15,2013-02-11 10:48:00,
2013-02-11 04:50:00,56.3,37.4,29.89,East,79,4.0,4.0,49,0.00,,,0.00,Wunderground v.1.15,2013-02-11 10:50:00,
2013-02-11 04:52:00,56.3,37.4,29.89,East,80,4.0,6.0,49,0.00,,,0.00,Wunderground v.1.15,2013-02-11 10:52:00,
2013-02-11 04:56:00,56.3,36.8,29.89,NE,56,4.0,6.0,48,0.00,,,0.00,Wunderground v.1.15,2013-02-11 10:56:00,
2013-02-11 04:58:00,56.3,36.8,29.89,NE,35,5.0,6.0,48,0.00,,,0.00,Wunderground v.1.15,2013-02-11 10:58:00,
2013-02-11 05:03:00,56.2,36.8,29.87,East,79,4.0,5.0,48,0.00,,,0.00,Wunderground v.1.15,2013-02-11 11:03:00,
2013-02-11 05:04:00,56.2,36.8,29.87,NE,51,4.0,5.0,48,0.00,,,0.00,Wunderground v.1.15,2013-02-11 11:04:00,
2013-02-11 05:06:00,56.2,36.8,29.87,ENE,66,4.0,7.0,48,0.00,,,0.00,Wunderground v.1.15,2013-02-11 11:06:00,
2013-02-11 05:07:00,56.2,36.2,29.87,NE,55,4.0,11.0,47,0.00,,,0.00,Wunderground v.1.15,2013-02-11 11:07:00,
2013-02-11 05:08:00,56.3,36.3,29.87,NE,47,4.0,11.0,47,0.00,,,0.00,Wunderground v.1.15,2013-02-11 11:08:00,
2013-02-11 05:12:00,56.2,36.2,29.87,ENE,75,5.0,6.0,47,0.00,,,0.00,Wunderground v.1.15,2013-02-11 11:12:00,
2013-02-11 05:14:00,56.2,36.2,29.87,NNE,24,5.0,10.0,47,0.00,,,0.00,Wunderground v.1.15,2013-02-11 11:14:00,
2013-02-11 05:16:00,56.2,35.7,29.86,ENE,75,6.0,10.0,46,0.00,,,0.00,Wunderground v.1.15,2013-02-11 11:16:00,
2013-02-11 05:18:00,56.2,35.7,29.86,NE,47,6.0,12.0,46,0.00,,,0.00,Wunderground v.1.15,2013-02-11 11:18:00,
2013-02-11 05:20:00,56.2,35.7,29.86,NE,52,6.0,6.0,46,0.00,,,0.00,Wunderground v.1.15,2013-02-11 11:20:00,
2013-02-11 05:22:00,56.0,34.9,29.86,NNE,20,6.0,8.0,45,0.00,,,0.00,Wunderground v.1.15,2013-02-11 11:22:00,
2013-02-11 05:24:00,56.0,34.9,29.86,NE,45,6.0,8.0,45,0.00,,,0.00,Wunderground v.1.15,2013-02-11 11:24:00,
2013-02-11 05:25:00,56.0,34.9,29.86,East,83,6.0,8.0,45,0.00,,,0.00,Wunderground v.1.15,2013-02-11 11:25:00,
2013-02-11 05:27:00,56.0,34.9,29.86,ENE,78,5.0,13.0,45,0.00,,,0.00,Wunderground v.1.15,2013-02-11 11:27:00,
2013-02-11 05:32:00,55.9,34.8,29.87,ESE,102,6.0,7.0,45,0.00,,,0.00,Wunderground v.1.15,2013-02-11 11:32:00,
2013-02-11 05:33:00,55.9,34.3,29.87,East,90,6.0,7.0,44,0.00,,,0.00,Wunderground v.1.15,2013-02-11 11:33:00,
2013-02-11 05:34:00,55.9,34.8,29.87,ENE,78,6.0,10.0,45,0.00,,,0.00,Wunderground v.1.15,2013-02-11 11:34:00,
2013-02-11 05:36:00,55.9,34.8,29.87,ENE,71,7.0,10.0,45,0.00,,,0.00,Wunderground v.1.15,2013-02-11 11:36:00,
2013-02-11 05:38:00,55.9,34.8,29.87,NE,45,7.0,10.0,45,0.00,,,0.00,Wunderground v.1.15,2013-02-11 11:38:00,
2013-02-11 05:40:00,55.9,34.8,29.87,ENE,58,6.0,10.0,45,0.00,,,0.00,Wunderground v.1.15,2013-02-11 11:40:00,
2013-02-11 05:44:00,55.7,34.7,29.87,NE,37,6.0,10.0,45,0.00,,,0.00,Wunderground v.1.15,2013-02-11 11:44:00,
2013-02-11 05:46:00,55.7,35.2,29.87,NE,37,6.0,10.0,46,0.00,,,0.00,Wunderground v.1.15,2013-02-11 11:46:00,
2013-02-11 05:47:00,55.7,35.2,29.87,NNE,30,6.0,10.0,46,0.00,,,0.00,Wunderground v.1.15,2013-02-11 11:47:00,
2013-02-11 05:51:00,55.6,35.7,29.87,NE,49,6.0,7.0,47,0.00,,,0.00,Wunderground v.1.15,2013-02-11 11:51:00,
2013-02-11 05:52:00,55.6,35.7,29.87,NE,55,6.0,7.0,47,0.00,,,0.00,Wunderground v.1.15,2013-02-11 11:52:00,
2013-02-11 05:53:00,55.6,35.7,29.87,NE,49,6.0,7.0,47,0.00,,,0.00,Wunderground v.1.15,2013-02-11 11:53:00,
2013-02-11 05:54:00,55.4,35.5,29.87,ENE,66,7.0,7.0,47,0.00,,,0.00,Wunderground v.1.15,2013-02-11 11:54:00,
2013-02-11 05:57:00,55.4,36.0,29.87,NE,52,5.0,7.0,48,0.00,,,0.00,Wunderground v.1.15,2013-02-11 11:57:00,
2013-02-11 05:58:00,55.4,36.0,29.87,ENE,62,5.0,7.0,48,0.00,,,0.00,Wunderground v.1.15,2013-02-11 11:58:00,
2013-02-11 06:03:00,55.3,35.9,29.88,NE,49,5.0,9.0,48,0.00,,,0.00,Wunderground v.1.15,2013-02-11 12:03:00,
2013-02-11 06:04:00,55.3,35.9,29.88,NE,52,5.0,9.0,48,0.00,,,0.00,Wunderground v.1.15,2013-02-11 12:04:00,
2013-02-11 06:05:00,55.3,35.9,29.88,NE,54,5.0,9.0,48,0.00,,,0.00,Wunderground v.1.15,2013-02-11 12:05:00,
2013-02-11 06:06:00,55.1,35.7,29.88,NNE,17,6.0,9.0,48,0.00,,,0.00,Wunderground v.1.15,2013-02-11 12:06:00,
2013-02-11 06:10:00,55.0,36.2,29.88,NNE,25,6.0,6.0,49,0.00,,,0.00,Wunderground v.1.15,2013-02-11 12:10:00,
2013-02-11 06:11:00,55.0,36.2,29.88,NE,54,6.0,6.0,49,0.00,,,0.00,Wunderground v.1.15,2013-02-11 12:11:00,
2013-02-11 06:12:00,55.0,36.2,29.88,NE,55,6.0,6.0,49,0.00,,,0.00,Wunderground v.1.15,2013-02-11 12:12:00,
2013-02-11 06:15:00,54.8,36.0,29.88,NE,37,6.0,7.0,49,0.00,,,0.00,Wunderground v.1.15,2013-02-11 12:15:00,
2013-02-11 06:17:00,54.8,36.0,29.89,NE,54,6.0,7.0,49,0.00,,,0.00,Wunderground v.1.15,2013-02-11 12:17:00,
2013-02-11 06:18:00,54.8,36.0,29.89,NE,56,5.0,7.0,49,0.00,,,0.00,Wunderground v.1.15,2013-02-11 12:18:00,
2013-02-11 06:22:00,54.7,36.4,29.89,East,82,4.0,7.0,50,0.00,,,0.00,Wunderground v.1.15,2013-02-11 12:22:00,
2013-02-11 06:23:00,54.7,36.4,29.89,NE,56,4.0,7.0,50,0.00,,,0.00,Wunderground v.1.15,2013-02-11 12:23:00,
2013-02-11 06:26:00,54.5,36.2,29.89,NNE,28,4.0,7.0,50,0.00,,,0.00,Wunderground v.1.15,2013-02-11 12:26:00,
2013-02-11 06:28:00,54.5,36.2,29.89,NNE,21,4.0,7.0,50,0.00,,,0.00,Wunderground v.1.15,2013-02-11 12:28:00,
2013-02-11 06:31:00,54.4,36.1,29.90,NNE,31,4.0,6.0,50,0.00,,,0.00,Wunderground v.1.15,2013-02-11 12:31:00,
2013-02-11 06:32:00,54.4,36.1,29.90,NE,45,4.0,6.0,50,0.00,,,0.00,Wunderground v.1.15,2013-02-11 12:32:00,
2013-02-11 06:33:00,54.4,36.1,29.90,NNE,18,4.0,6.0,50,0.00,,,0.00,Wunderground v.1.15,2013-02-11 12:33:00,
2013-02-11 06:35:00,54.4,36.1,29.90,NE,45,4.0,8.0,50,0.00,,,0.00,Wunderground v.1.15,2013-02-11 12:35:00,
2013-02-11 06:36:00,54.4,36.1,29.90,NE,40,5.0,8.0,50,0.00,,,0.00,Wunderground v.1.15,2013-02-11 12:36:00,
2013-02-11 06:38:00,54.4,36.1,29.90,ENE,66,4.0,8.0,50,0.00,,,0.00,Wunderground v.1.15,2013-02-11 12:38:00,
2013-02-11 06:41:00,54.4,36.1,29.90,NNE,20,4.0,4.0,50,0.00,,,0.00,Wunderground v.1.15,2013-02-11 12:41:00,
2013-02-11 06:43:00,54.4,36.1,29.90,NNE,21,4.0,6.0,50,0.00,,,0.00,Wunderground v.1.15,2013-02-11 12:43:00,
2013-02-11 06:44:00,54.4,36.1,29.90,NNE,21,4.0,6.0,50,0.00,,,0.00,Wunderground v.1.15,2013-02-11 12:44:00,
2013-02-11 06:48:00,54.4,36.1,29.91,NNE,21,3.0,6.0,50,0.00,,,0.00,Wunderground v.1.15,2013-02-11 12:48:00,
2013-02-11 06:50:00,54.4,36.1,29.91,NNE,21,2.0,2.0,50,0.00,,,0.00,Wunderground v.1.15,2013-02-11 12:50:00,
2013-02-11 06:51:00,54.4,36.1,29.91,NNE,21,2.0,2.0,50,0.00,,,0.00,Wunderground v.1.15,2013-02-11 12:51:00,
2013-02-11 06:56:00,54.4,36.1,29.91,NNE,23,2.0,5.0,50,0.00,,,0.00,Wunderground v.1.15,2013-02-11 12:56:00,
2013-02-11 06:58:00,54.4,36.6,29.91,NNE,23,2.0,5.0,51,0.00,,,0.00,Wunderground v.1.15,2013-02-11 12:58:00,
2013-02-11 07:02:00,54.4,37.1,29.91,NE,44,3.0,6.0,52,0.00,,,0.00,Wunderground v.1.15,2013-02-11 13:02:00,
2013-02-11 07:04:00,54.2,36.9,29.91,NE,49,3.0,6.0,52,0.00,,,0.00,Wunderground v.1.15,2013-02-11 13:04:00,
2013-02-11 07:05:00,54.2,36.9,29.91,NNE,30,4.0,6.0,52,0.00,,,0.00,Wunderground v.1.15,2013-02-11 13:05:00,
2013-02-11 07:07:00,54.2,37.9,29.91,North,359,4.0,6.0,54,0.00,,,0.00,Wunderground v.1.15,2013-02-11 13:07:00,
2013-02-11 07:13:00,53.8,38.9,29.91,North,7,4.0,5.0,57,0.00,,,0.00,Wunderground v.1.15,2013-02-11 13:13:00,
2013-02-11 07:14:00,53.6,39.2,29.91,NNE,24,4.0,7.0,58,0.00,,,0.00,Wunderground v.1.15,2013-02-11 13:14:00,
2013-02-11 07:15:00,53.6,39.2,29.91,NNE,25,4.0,7.0,58,0.00,,,0.00,Wunderground v.1.15,2013-02-11 13:15:00,
2013-02-11 07:16:00,53.5,39.1,29.91,North,10,4.0,7.0,58,0.00,,,0.00,Wunderground v.1.15,2013-02-11 13:16:00,
2013-02-11 07:20:00,53.3,39.8,29.91,North,0,3.0,3.0,60,0.00,,,0.00,Wunderground v.1.15,2013-02-11 13:20:00,
2013-02-11 07:21:00,53.2,40.1,29.91,North,0,3.0,6.0,61,0.00,,,0.00,Wunderground v.1.15,2013-02-11 13:21:00,
2013-02-11 07:25:00,52.9,39.8,29.91,NNE,28,4.0,7.0,61,0.00,,,0.01,Wunderground v.1.15,2013-02-11 13:25:00,
2013-02-11 07:26:00,52.9,39.8,29.91,NNE,18,4.0,7.0,61,0.00,,,0.01,Wunderground v.1.15,2013-02-11 13:26:00,
2013-02-11 07:28:00,52.8,40.1,29.91,NNW,347,4.0,7.0,62,0.00,,,0.01,Wunderground v.1.15,2013-02-11 13:28:00,
2013-02-11 07:31:00,52.6,40.4,29.92,North,3,4.0,4.0,63,0.00,,,0.01,Wunderground v.1.15,2013-02-11 13:31:00,
2013-02-11 07:33:00,52.6,40.8,29.92,North,3,4.0,4.0,64,0.00,,,0.01,Wunderground v.1.15,2013-02-11 13:33:00,
2013-02-11 07:34:00,52.6,40.8,29.92,North,0,3.0,4.0,64,0.00,,,0.01,Wunderground v.1.15,2013-02-11 13:34:00,
2013-02-11 07:35:00,52.6,40.4,29.92,North,0,4.0,4.0,63,0.00,,,0.01,Wunderground v.1.15,2013-02-11 13:35:00,
2013-02-11 07:37:00,52.6,39.9,29.92,North,0,4.0,7.0,62,0.00,,,0.01,Wunderground v.1.15,2013-02-11 13:37:00,
2013-02-11 07:39:00,52.6,39.9,29.92,NNE,25,4.0,7.0,62,0.00,,,0.01,Wunderground v.1.15,2013-02-11 13:39:00,
2013-02-11 07:41:00,52.8,39.7,29.92,North,359,4.0,4.0,61,0.00,,,0.01,Wunderground v.1.15,2013-02-11 13:41:00,
2013-02-11 07:42:00,52.8,39.7,29.92,North,0,4.0,4.0,61,0.00,,,0.01,Wunderground v.1.15,2013-02-11 13:42:00,
2013-02-11 07:45:00,53.1,40.4,29.92,North,0,4.0,4.0,62,0.00,,,0.01,Wunderground v.1.15,2013-02-11 13:45:00,
2013-02-11 07:46:00,53.1,40.0,29.92,NE,38,4.0,5.0,61,0.00,,,0.01,Wunderground v.1.15,2013-02-11 13:46:00,
2013-02-11 07:51:00,53.3,39.8,29.92,NE,48,4.0,6.0,60,0.00,,,0.01,Wunderground v.1.15,2013-02-11 13:51:00,
2013-02-11 07:52:00,53.3,39.3,29.92,NE,37,4.0,7.0,59,0.00,,,0.01,Wunderground v.1.15,2013-02-11 13:52:00,
2013-02-11 07:53:00,53.3,39.3,29.92,NE,51,4.0,7.0,59,0.00,,,0.01,Wunderground v.1.15,2013-02-11 13:53:00,
2013-02-11 07:56:00,53.5,39.5,29.92,North,359,4.0,7.0,59,0.00,,,0.01,Wunderground v.1.15,2013-02-11 13:56:00,
2013-02-11 07:57:00,53.5,39.9,29.92,North,359,4.0,7.0,60,0.00,,,0.01,Wunderground v.1.15,2013-02-11 13:57:00,
2013-02-11 07:58:00,53.6,40.0,29.92,NW,322,4.0,7.0,60,0.00,,,0.01,Wunderground v.1.15,2013-02-11 13:58:00,
2013-02-11 08:01:00,53.6,39.6,29.95,North,359,4.0,5.0,59,0.00,,,0.01,Wunderground v.1.15,2013-02-11 14:01:00,
2013-02-11 08:03:00,53.8,39.8,29.95,NNE,20,4.0,5.0,59,0.00,,,0.01,Wunderground v.1.15,2013-02-11 14:03:00,
2013-02-11 08:05:00,53.9,39.9,29.95,NE,40,4.0,5.0,59,0.00,,,0.01,Wunderground v.1.15,2013-02-11 14:05:00,
2013-02-11 08:06:00,53.9,39.9,29.95,NE,40,4.0,5.0,59,0.00,,,0.01,Wunderground v.1.15,2013-02-11 14:06:00,
2013-02-11 08:08:00,53.9,39.9,29.95,NNE,17,4.0,5.0,59,0.00,,,0.01,Wunderground v.1.15,2013-02-11 14:08:00,
2013-02-11 08:12:00,53.9,39.9,29.95,NNE,31,4.0,5.0,59,0.00,,,0.01,Wunderground v.1.15,2013-02-11 14:12:00,
2013-02-11 08:14:00,53.8,39.4,29.95,North,8,5.0,5.0,58,0.00,,,0.01,Wunderground v.1.15,2013-02-11 14:14:00,
2013-02-11 08:17:00,53.8,39.8,29.93,North,0,4.0,6.0,59,0.00,,,0.01,Wunderground v.1.15,2013-02-11 14:17:00,
2013-02-11 08:19:00,53.8,39.8,29.93,North,0,5.0,6.0,59,0.00,,,0.01,Wunderground v.1.15,2013-02-11 14:19:00,
2013-02-11 08:21:00,53.8,39.8,29.93,North,359,4.0,4.0,59,0.00,,,0.01,Wunderground v.1.15,2013-02-11 14:21:00,
2013-02-11 08:26:00,53.8,39.8,29.93,NNE,24,5.0,8.0,59,0.00,,,0.01,Wunderground v.1.15,2013-02-11 14:26:00,
2013-02-11 08:27:00,53.8,40.2,29.93,NE,35,5.0,8.0,60,0.00,,,0.01,Wunderground v.1.15,2013-02-11 14:27:00,
2013-02-11 08:28:00,53.6,40.0,29.93,ENE,66,5.0,8.0,60,0.00,,,0.01,Wunderground v.1.15,2013-02-11 14:28:00,
2013-02-11 08:29:00,53.6,39.6,29.93,NNE,28,5.0,8.0,59,0.00,,,0.01,Wunderground v.1.15,2013-02-11 14:29:00,
2013-02-11 08:33:00,53.5,39.9,29.94,North,357,5.0,6.0,60,0.00,,,0.01,Wunderground v.1.15,2013-02-11 14:33:00,
2013-02-11 08:34:00,53.5,39.9,29.94,North,0,6.0,7.0,60,0.00,,,0.01,Wunderground v.1.15,2013-02-11 14:34:00,
2013-02-11 08:35:00,53.5,39.5,29.94,NE,42,5.0,9.0,59,0.00,,,0.01,Wunderground v.1.15,2013-02-11 14:35:00,
2013-02-11 08:37:00,53.5,39.9,29.94,North,0,5.0,9.0,60,0.00,,,0.01,Wunderground v.1.15,2013-02-11 14:37:00,
2013-02-11 08:40:00,53.5,39.9,29.94,NE,54,6.0,10.0,60,0.00,,,0.01,Wunderground v.1.15,2013-02-11 14:40:00,
2013-02-11 08:42:00,53.6,39.6,29.94,ENE,66,6.0,8.0,59,0.00,,,0.01,Wunderground v.1.15,2013-02-11 14:42:00,
2013-02-11 08:43:00,53.6,39.6,29.94,NE,47,7.0,8.0,59,0.00,,,0.01,Wunderground v.1.15,2013-02-11 14:43:00,
2013-02-11 08:44:00,53.6,40.0,29.94,NNE,31,7.0,8.0,60,0.00,,,0.01,Wunderground v.1.15,2013-02-11 14:44:00,
2013-02-11 08:49:00,53.8,40.2,29.94,NNE,20,7.0,11.0,60,0.00,,,0.01,Wunderground v.1.15,2013-02-11 14:49:00,
2013-02-11 08:50:00,53.9,40.3,29.94,NNE,21,7.0,12.0,60,0.00,,,0.01,Wunderground v.1.15,2013-02-11 14:50:00,
2013-02-11 08:51:00,53.9,40.3,29.94,NNE,17,7.0,7.0,60,0.00,,,0.01,Wunderground v.1.15,2013-02-11 14:51:00,
2013-02-11 08:56:00,54.1,40.1,29.94,NNE,17,6.0,12.0,59,0.00,,,0.01,Wunderground v.1.15,2013-02-11 14:56:00,
2013-02-11 08:57:00,54.1,40.5,29.94,North,7,6.0,12.0,60,0.00,,,0.01,Wunderground v.1.15,2013-02-11 14:57:00,
2013-02-11 08:58:00,54.1,40.5,29.94,North,352,6.0,12.0,60,0.00,,,0.01,Wunderground v.1.15,2013-02-11 14:58:00,
2013-02-11 09:02:00,54.1,40.9,29.96,NNW,344,6.0,6.0,61,0.00,,,0.01,Wunderground v.1.15,2013-02-11 15:02:00,
2013-02-11 09:03:00,54.1,40.9,29.96,NNE,30,6.0,7.0,61,0.00,,,0.01,Wunderground v.1.15,2013-02-11 15:03:00,
2013-02-11 09:04:00,53.9,40.8,29.96,North,0,6.0,8.0,61,0.00,,,0.01,Wunderground v.1.15,2013-02-11 15:04:00,
2013-02-11 09:07:00,53.9,41.2,29.96,NE,51,7.0,8.0,62,0.00,,,0.01,Wunderground v.1.15,2013-02-11 15:07:00,
2013-02-11 09:08:00,53.9,41.2,29.96,North,0,7.0,8.0,62,0.00,,,0.01,Wunderground v.1.15,2013-02-11 15:08:00,
2013-02-11 09:10:00,53.9,41.2,29.96,NE,42,7.0,7.0,62,0.00,,,0.01,Wunderground v.1.15,2013-02-11 15:10:00,
2013-02-11 09:11:00,53.9,41.2,29.96,NE,47,7.0,8.0,62,0.00,,,0.01,Wunderground v.1.15,2013-02-11 15:11:00,
2013-02-11 09:13:00,54.1,41.4,29.96,NNE,30,6.0,8.0,62,0.00,,,0.01,Wunderground v.1.15,2013-02-11 15:13:00,
2013-02-11 09:15:00,54.1,40.9,29.96,NNE,17,6.0,8.0,61,0.00,,,0.01,Wunderground v.1.15,2013-02-11 15:15:00,
2013-02-11 09:16:00,54.2,41.0,29.96,ENE,59,6.0,8.0,61,0.00,,,0.01,Wunderground v.1.15,2013-02-11 15:16:00,
2013-02-11 09:18:00,54.4,41.2,29.96,NE,37,6.0,11.0,61,0.00,,,0.01,Wunderground v.1.15,2013-02-11 15:18:00,
2013-02-11 09:19:00,54.4,41.2,29.96,NE,40,6.0,11.0,61,0.00,,,0.01,Wunderground v.1.15,2013-02-11 15:19:00,
2013-02-11 09:20:00,54.5,41.3,29.96,ENE,62,6.0,6.0,61,0.00,,,0.01,Wunderground v.1.15,2013-02-11 15:20:00,
2013-02-11 09:25:00,54.7,41.1,29.96,ENE,72,5.0,7.0,60,0.00,,,0.01,Wunderground v.1.15,2013-02-11 15:25:00,
2013-02-11 09:29:00,54.8,40.7,29.96,NNE,23,6.0,10.0,59,0.00,,,0.01,Wunderground v.1.15,2013-02-11 15:29:00,
2013-02-11 09:31:00,55.1,41.0,29.95,NE,37,6.0,6.0,59,0.00,,,0.01,Wunderground v.1.15,2013-02-11 15:31:00,
2013-02-11 09:32:00,55.1,40.6,29.95,NNE,28,6.0,6.0,58,0.00,,,0.01,Wunderground v.1.15,2013-02-11 15:32:00,
2013-02-11 09:34:00,55.4,40.9,29.95,NNE,14,6.0,10.0,58,0.00,,,0.01,Wunderground v.1.15,2013-02-11 15:34:00,
2013-02-11 09:36:00,55.4,40.9,29.95,North,11,7.0,11.0,58,0.00,,,0.01,Wunderground v.1.15,2013-02-11 15:36:00,
2013-02-11 09:38:00,55.4,40.9,29.95,NE,35,7.0,11.0,58,0.00,,,0.01,Wunderground v.1.15,2013-02-11 15:38:00,
2013-02-11 09:40:00,55.4,40.4,29.95,North,8,7.0,7.0,57,0.00,,,0.01,Wunderground v.1.15,2013-02-11 15:40:00,
2013-02-11 09:45:00,55.6,41.0,29.95,North,0,6.0,7.0,58,0.00,,,0.01,Wunderground v.1.15,2013-02-11 15:45:00,
2013-02-11 09:46:00,55.6,41.0,29.96,North,0,6.0,7.0,58,0.00,,,0.01,Wunderground v.1.15,2013-02-11 15:46:00,
2013-02-11 09:48:00,55.6,41.0,29.96,North,0,5.0,7.0,58,0.00,,,0.01,Wunderground v.1.15,2013-02-11 15:48:00,
2013-02-11 09:49:00,55.6,41.5,29.96,NE,45,5.0,7.0,59,0.00,,,0.01,Wunderground v.1.15,2013-02-11 15:49:00,
2013-02-11 09:54:00,55.4,41.3,29.96,NNE,17,5.0,9.0,59,0.00,,,0.01,Wunderground v.1.15,2013-02-11 15:54:00,
2013-02-11 09:55:00,55.4,41.3,29.96,ENE,76,5.0,9.0,59,0.00,,,0.01,Wunderground v.1.15,2013-02-11 15:55:00,
2013-02-11 09:56:00,55.4,41.7,29.96,ENE,76,5.0,9.0,60,0.00,,,0.01,Wunderground v.1.15,2013-02-11 15:56:00,
2013-02-11 09:59:00,55.4,41.7,29.96,NE,45,5.0,9.0,60,0.00,,,0.01,Wunderground v.1.15,2013-02-11 15:59:00,
2013-02-11 10:01:00,55.4,42.2,29.97,NE,45,4.0,6.0,61,0.00,,,0.01,Wunderground v.1.15,2013-02-11 16:01:00,
2013-02-11 10:04:00,55.4,42.2,29.97,NE,40,3.0,6.0,61,0.00,,,0.01,Wunderground v.1.15,2013-02-11 16:04:00,
2013-02-11 10:06:00,55.4,42.6,29.97,North,359,3.0,6.0,62,0.00,,,0.01,Wunderground v.1.15,2013-02-11 16:06:00,
2013-02-11 10:08:00,55.3,42.9,29.97,North,357,4.0,7.0,63,0.00,,,0.01,Wunderground v.1.15,2013-02-11 16:08:00,
2013-02-11 10:13:00,55.1,43.5,29.97,NE,42,5.0,8.0,65,0.00,,,0.01,Wunderground v.1.15,2013-02-11 16:13:00,
2013-02-11 10:14:00,55.1,43.5,29.97,NNE,14,5.0,10.0,65,0.00,,,0.01,Wunderground v.1.15,2013-02-11 16:14:00,
2013-02-11 10:16:00,55.0,43.8,29.97,NE,56,6.0,10.0,66,0.00,,,0.01,Wunderground v.1.15,2013-02-11 16:16:00,
2013-02-11 10:20:00,54.8,44.4,29.97,ENE,62,5.0,5.0,68,0.00,,,0.01,Wunderground v.1.15,2013-02-11 16:20:00,
2013-02-11 10:21:00,54.8,44.4,29.97,NE,42,5.0,5.0,68,0.00,,,0.01,Wunderground v.1.15,2013-02-11 16:21:00,
2013-02-11 10:24:00,55.1,43.9,29.97,NE,54,6.0,10.0,66,0.00,,,0.01,Wunderground v.1.15,2013-02-11 16:24:00,
2013-02-11 10:26:00,55.4,43.8,29.97,East,86,5.0,10.0,65,0.00,,,0.01,Wunderground v.1.15,2013-02-11 16:26:00,
2013-02-11 10:27:00,55.6,44.0,29.97,NNE,27,6.0,12.0,65,0.00,,,0.01,Wunderground v.1.15,2013-02-11 16:27:00,
2013-02-11 10:31:00,55.6,43.2,29.97,ENE,66,7.0,9.0,63,0.00,,,0.01,Wunderground v.1.15,2013-02-11 16:31:00,
2013-02-11 10:32:00,55.6,43.2,29.97,NE,44,8.0,9.0,63,0.00,,,0.01,Wunderground v.1.15,2013-02-11 16:32:00,
2013-02-11 10:34:00,55.7,43.3,29.97,NNE,23,8.0,9.0,63,0.00,,,0.01,Wunderground v.1.15,2013-02-11 16:34:00,
2013-02-11 10:35:00,55.7,43.3,29.97,ENE,71,8.0,9.0,63,0.00,,,0.01,Wunderground v.1.15,2013-02-11 16:35:00,
2013-02-11 10:37:00,55.7,43.3,29.97,NE,51,8.0,9.0,63,0.00,,,0.01,Wunderground v.1.15,2013-02-11 16:37:00,
2013-02-11 10:39:00,55.9,43.1,29.97,ENE,59,8.0,11.0,62,0.00,,,0.01,Wunderground v.1.15,2013-02-11 16:39:00,
2013-02-11 10:41:00,56.0,43.2,29.97,NE,47,7.0,7.0,62,0.00,,,0.01,Wunderground v.1.15,2013-02-11 16:41:00,
2013-02-11 10:44:00,56.2,43.3,29.97,North,6,7.0,11.0,62,0.00,,,0.01,Wunderground v.1.15,2013-02-11 16:44:00,
2013-02-11 10:45:00,56.2,43.3,29.97,NNE,28,7.0,11.0,62,0.00,,,0.01,Wunderground v.1.15,2013-02-11 16:45:00,
2013-02-11 10:46:00,56.2,43.3,29.97,ENE,76,7.0,11.0,62,0.00,,,0.01,Wunderground v.1.15,2013-02-11 16:46:00,
2013-02-11 10:49:00,56.3,43.4,29.97,ENE,75,7.0,11.0,62,0.00,,,0.01,Wunderground v.1.15,2013-02-11 16:49:00,
2013-02-11 10:51:00,56.5,43.6,29.97,ENE,59,7.0,7.0,62,0.00,,,0.01,Wunderground v.1.15,2013-02-11 16:51:00,
2013-02-11 10:52:00,56.5,43.6,29.97,ENE,78,7.0,8.0,62,0.00,,,0.01,Wunderground v.1.15,2013-02-11 16:52:00,
2013-02-11 10:54:00,56.6,42.9,29.97,East,89,6.0,10.0,60,0.00,,,0.01,Wunderground v.1.15,2013-02-11 16:54:00,
2013-02-11 10:57:00,56.7,43.0,29.97,NE,40,6.0,10.0,60,0.00,,,0.01,Wunderground v.1.15,2013-02-11 16:57:00,
2013-02-11 10:58:00,56.7,43.0,29.97,NNE,28,5.0,10.0,60,0.00,,,0.01,Wunderground v.1.15,2013-02-11 16:58:00,
2013-02-11 10:59:00,56.9,43.2,29.97,NNE,28,5.0,10.0,60,0.00,,,0.01,Wunderground v.1.15,2013-02-11 16:59:00,
2013-02-11 11:04:00,57.0,42.4,29.96,NNE,25,5.0,7.0,58,0.00,,,0.01,Wunderground v.1.15,2013-02-11 17:04:00,
2013-02-11 11:06:00,57.0,42.4,29.96,East,90,5.0,12.0,58,0.00,,,0.01,Wunderground v.1.15,2013-02-11 17:06:00,
2013-02-11 11:09:00,57.0,42.8,29.96,East,100,5.0,12.0,59,0.00,,,0.01,Wunderground v.1.15,2013-02-11 17:09:00,
2013-02-11 11:10:00,57.0,42.8,29.96,NE,49,5.0,12.0,59,0.00,,,0.01,Wunderground v.1.15,2013-02-11 17:10:00,
2013-02-11 11:11:00,57.0,42.8,29.96,NE,44,5.0,6.0,59,0.00,,,0.01,Wunderground v.1.15,2013-02-11 17:11:00,
2013-02-11 11:15:00,56.9,42.7,29.96,NE,45,6.0,13.0,59,0.00,,,0.01,Wunderground v.1.15,2013-02-11 17:15:00,
2013-02-11 11:16:00,56.9,43.2,29.96,East,90,6.0,13.0,60,0.00,,,0.01,Wunderground v.1.15,2013-02-11 17:16:00,
2013-02-11 11:17:00,56.7,43.0,29.96,NE,54,6.0,13.0,60,0.00,,,0.01,Wunderground v.1.15,2013-02-11 17:17:00,
2013-02-11 11:19:00,56.7,43.0,29.96,NE,51,7.0,13.0,60,0.00,,,0.01,Wunderground v.1.15,2013-02-11 17:19:00,
2013-02-11 11:22:00,56.9,43.2,29.96,North,1,7.0,7.0,60,0.00,,,0.01,Wunderground v.1.15,2013-02-11 17:22:00,
2013-02-11 11:24:00,56.9,43.2,29.96,ENE,78,6.0,9.0,60,0.00,,,0.01,Wunderground v.1.15,2013-02-11 17:24:00,
2013-02-11 11:25:00,56.9,43.2,29.96,East,79,6.0,9.0,60,0.00,,,0.01,Wunderground v.1.15,2013-02-11 17:25:00,
2013-02-11 11:27:00,56.9,43.2,29.96,NE,45,6.0,9.0,60,0.00,,,0.01,Wunderground v.1.15,2013-02-11 17:27:00,
2013-02-11 11:29:00,57.0,43.2,29.96,NE,56,6.0,9.0,60,0.00,,,0.01,Wunderground v.1.15,2013-02-11 17:29:00,
2013-02-11 11:31:00,57.0,43.2,29.96,NE,51,6.0,10.0,60,0.00,,,0.01,Wunderground v.1.15,2013-02-11 17:31:00,
2013-02-11 11:33:00,57.2,43.4,29.96,NNE,23,6.0,10.0,60,0.00,,,0.01,Wunderground v.1.15,2013-02-11 17:33:00,
2013-02-11 11:35:00,57.2,43.0,29.96,NNE,25,6.0,10.0,59,0.00,,,0.01,Wunderground v.1.15,2013-02-11 17:35:00,
2013-02-11 11:36:00,57.2,43.0,29.96,NNE,30,6.0,10.0,59,0.00,,,0.01,Wunderground v.1.15,2013-02-11 17:36:00,
2013-02-11 11:38:00,57.2,43.4,29.96,NE,55,6.0,10.0,60,0.00,,,0.01,Wunderground v.1.15,2013-02-11 17:38:00,
2013-02-11 11:40:00,57.3,43.5,29.96,ENE,73,6.0,10.0,60,0.00,,,0.01,Wunderground v.1.15,2013-02-11 17:40:00,
2013-02-11 11:43:00,57.5,43.7,29.96,NE,44,5.0,6.0,60,0.00,,,0.01,Wunderground v.1.15,2013-02-11 17:43:00,
2013-02-11 11:45:00,57.6,43.4,29.96,ENE,75,4.0,6.0,59,0.00,,,0.01,Wunderground v.1.15,2013-02-11 17:45:00,
2013-02-11 11:48:00,57.6,43.4,29.96,ENE,65,4.0,6.0,59,0.00,,,0.01,Wunderground v.1.15,2013-02-11 17:48:00,
2013-02-11 11:49:00,57.6,43.4,29.96,NE,38,4.0,6.0,59,0.00,,,0.01,Wunderground v.1.15,2013-02-11 17:49:00,
2013-02-11 11:51:00,57.6,43.8,29.96,NE,55,4.0,4.0,60,0.00,,,0.01,Wunderground v.1.15,2013-02-11 17:51:00,
2013-02-11 11:52:00,57.6,43.8,29.96,NE,47,4.0,5.0,60,0.00,,,0.01,Wunderground v.1.15,2013-02-11 17:52:00,
2013-02-11 11:53:00,57.8,44.0,29.96,NNE,23,4.0,5.0,60,0.00,,,0.01,Wunderground v.1.15,2013-02-11 17:53:00,
2013-02-11 11:55:00,57.8,44.0,29.96,ENE,78,5.0,9.0,60,0.00,,,0.01,Wunderground v.1.15,2013-02-11 17:55:00,
2013-02-11 11:58:00,57.6,43.8,29.96,NE,41,6.0,9.0,60,0.00,,,0.01,Wunderground v.1.15,2013-02-11 17:58:00,
2013-02-11 12:00:00,57.6,44.2,29.94,NNE,30,5.0,6.0,61,0.00,,,0.01,Wunderground v.1.15,2013-02-11 18:00:00,
2013-02-11 12:01:00,57.8,44.4,29.94,NE,41,6.0,6.0,61,0.00,,,0.01,Wunderground v.1.15,2013-02-11 18:01:00,
2013-02-11 12:04:00,57.8,44.4,29.94,NE,38,6.0,6.0,61,0.00,,,0.01,Wunderground v.1.15,2013-02-11 18:04:00,
2013-02-11 12:05:00,58.0,44.6,29.94,ENE,62,5.0,6.0,61,0.00,,,0.01,Wunderground v.1.15,2013-02-11 18:05:00,
2013-02-11 12:06:00,58.0,44.6,29.94,North,0,5.0,6.0,61,0.00,,,0.01,Wunderground v.1.15,2013-02-11 18:06:00,
2013-02-11 12:08:00,58.0,44.2,29.94,NNE,20,5.0,11.0,60,0.00,,,0.01,Wunderground v.1.15,2013-02-11 18:08:00,
2013-02-11 12:09:00,58.0,44.6,29.94,ENE,58,5.0,11.0,61,0.00,,,0.01,Wunderground v.1.15,2013-02-11 18:09:00,
2013-02-11 12:12:00,58.1,44.7,29.94,NNE,31,6.0,6.0,61,0.00,,,0.01,Wunderground v.1.15,2013-02-11 18:12:00,
2013-02-11 12:14:00,58.1,44.7,29.94,NE,56,6.0,8.0,61,0.00,,,0.01,Wunderground v.1.15,2013-02-11 18:14:00,
2013-02-11 12:16:00,58.1,45.1,29.94,NNE,31,7.0,8.0,62,0.00,,,0.01,Wunderground v.1.15,2013-02-11 18:16:00,
2013-02-11 12:17:00,58.1,45.1,29.94,NE,34,7.0,11.0,62,0.00,,,0.01,Wunderground v.1.15,2013-02-11 18:17:00,
2013-02-11 12:19:00,58.0,45.0,29.94,NNE,20,7.0,11.0,62,0.00,,,0.01,Wunderground v.1.15,2013-02-11 18:19:00,
2013-02-11 12:22:00,58.0,45.5,29.94,North,0,7.0,10.0,63,0.00,,,0.01,Wunderground v.1.15,2013-02-11 18:22:00,
2013-02-11 12:26:00,58.0,45.5,29.94,North,359,5.0,10.0,63,0.00,,,0.01,Wunderground v.1.15,2013-02-11 18:26:00,
2013-02-11 12:27:00,57.8,45.3,29.94,NNE,13,5.0,10.0,63,0.00,,,0.01,Wunderground v.1.15,2013-02-11 18:27:00,
2013-02-11 12:28:00,57.8,45.3,29.94,North,8,5.0,10.0,63,0.00,,,0.01,Wunderground v.1.15,2013-02-11 18:28:00,
2013-02-11 12:32:00,57.5,45.4,29.94,NNW,340,5.0,5.0,64,0.00,,,0.01,Wunderground v.1.15,2013-02-11 18:32:00,
2013-02-11 12:33:00,57.5,45.8,29.94,North,6,4.0,6.0,65,0.00,,,0.01,Wunderground v.1.15,2013-02-11 18:33:00,
2013-02-11 12:34:00,57.5,45.4,29.94,NE,45,5.0,6.0,64,0.00,,,0.01,Wunderground v.1.15,2013-02-11 18:34:00,
2013-02-11 12:37:00,57.2,45.5,29.94,NNE,24,5.0,7.0,65,0.00,,,0.01,Wunderground v.1.15,2013-02-11 18:37:00,
2013-02-11 12:39:00,57.2,45.5,29.94,NE,55,5.0,7.0,65,0.00,,,0.01,Wunderground v.1.15,2013-02-11 18:39:00,
2013-02-11 12:42:00,57.3,46.0,29.94,NE,41,4.0,4.0,66,0.00,,,0.01,Wunderground v.1.15,2013-02-11 18:42:00,
2013-02-11 12:44:00,57.3,46.0,29.94,NE,35,4.0,7.0,66,0.00,,,0.01,Wunderground v.1.15,2013-02-11 18:44:00,
2013-02-11 12:46:00,57.3,46.0,29.94,ENE,65,4.0,7.0,66,0.00,,,0.01,Wunderground v.1.15,2013-02-11 18:46:00,
2013-02-11 12:47:00,57.2,45.9,29.94,ENE,65,5.0,7.0,66,0.00,,,0.01,Wunderground v.1.15,2013-02-11 18:47:00,
2013-02-11 12:49:00,57.2,45.9,29.94,NE,52,5.0,7.0,66,0.00,,,0.01,Wunderground v.1.15,2013-02-11 18:49:00,
2013-02-11 12:53:00,57.0,46.1,29.94,NNE,23,7.0,7.0,67,0.00,,,0.01,Wunderground v.1.15,2013-02-11 18:53:00,
2013-02-11 12:54:00,57.0,46.1,29.94,ENE,58,7.0,7.0,67,0.00,,,0.01,Wunderground v.1.15,2013-02-11 18:54:00,
2013-02-11 12:55:00,57.0,46.1,29.94,NE,42,7.0,7.0,67,0.00,,,0.01,Wunderground v.1.15,2013-02-11 18:55:00,
2013-02-11 12:56:00,57.0,46.5,29.94,NE,48,6.0,11.0,68,0.00,,,0.01,Wunderground v.1.15,2013-02-11 18:56:00,
2013-02-11 12:58:00,57.0,46.1,29.94,North,10,7.0,12.0,67,0.00,,,0.01,Wunderground v.1.15,2013-02-11 18:58:00,
2013-02-11 13:03:00,56.9,46.4,29.94,NNE,31,6.0,7.0,68,0.00,,,0.01,Wunderground v.1.15,2013-02-11 19:03:00,
2013-02-11 13:04:00,56.9,46.4,29.94,NE,51,6.0,7.0,68,0.00,,,0.01,Wunderground v.1.15,2013-02-11 19:04:00,
2013-02-11 13:05:00,56.9,46.4,29.94,North,0,6.0,7.0,68,0.00,,,0.01,Wunderground v.1.15,2013-02-11 19:05:00,
2013-02-11 13:09:00,56.9,46.8,29.94,NNE,27,6.0,13.0,69,0.00,,,0.01,Wunderground v.1.15,2013-02-11 19:09:00,
2013-02-11 13:11:00,56.6,46.5,29.94,NNW,333,6.0,6.0,69,0.00,,,0.01,Wunderground v.1.15,2013-02-11 19:11:00,
2013-02-11 13:12:00,56.6,46.5,29.94,North,0,6.0,6.0,69,0.00,,,0.01,Wunderground v.1.15,2013-02-11 19:12:00,
2013-02-11 13:15:00,56.3,46.6,29.94,NE,41,6.0,6.0,70,0.00,,,0.01,Wunderground v.1.15,2013-02-11 19:15:00,
2013-02-11 13:18:00,56.3,47.0,29.94,NE,40,6.0,11.0,71,0.00,,,0.01,Wunderground v.1.15,2013-02-11 19:18:00,
2013-02-11 13:19:00,56.2,46.9,29.94,NNE,23,7.0,11.0,71,0.00,,,0.01,Wunderground v.1.15,2013-02-11 19:19:00,
2013-02-11 13:21:00,56.2,46.9,29.94,NE,42,6.0,6.0,71,0.00,,,0.01,Wunderground v.1.15,2013-02-11 19:21:00,
2013-02-11 13:22:00,56.2,46.9,29.94,North,8,6.0,11.0,71,0.00,,,0.01,Wunderground v.1.15,2013-02-11 19:22:00,
2013-02-11 13:23:00,56.2,46.9,29.94,North,356,7.0,11.0,71,0.00,,,0.01,Wunderground v.1.15,2013-02-11 19:23:00,
2013-02-11 13:27:00,56.0,47.1,29.94,North,11,8.0,11.0,72,0.00,,,0.01,Wunderground v.1.15,2013-02-11 19:27:00,
2013-02-11 13:29:00,56.0,47.1,29.94,NE,35,8.0,14.0,72,0.00,,,0.01,Wunderground v.1.15,2013-02-11 19:29:00,
2013-02-11 13:30:00,55.9,47.0,29.93,NNW,336,8.0,14.0,72,0.00,,,0.01,Wunderground v.1.15,2013-02-11 19:30:00,
2013-02-11 13:31:00,55.9,47.0,29.93,NNE,31,8.0,13.0,72,0.00,,,0.01,Wunderground v.1.15,2013-02-11 19:31:00,
2013-02-11 13:32:00,55.7,46.8,29.93,NNE,17,8.0,13.0,72,0.00,,,0.01,Wunderground v.1.15,2013-02-11 19:32:00,
2013-02-11 13:36:00,55.7,46.8,29.93,North,6,9.0,13.0,72,0.00,,,0.01,Wunderground v.1.15,2013-02-11 19:36:00,
2013-02-11 13:38:00,55.7,46.8,29.93,ENE,66,9.0,13.0,72,0.00,,,0.01,Wunderground v.1.15,2013-02-11 19:38:00,
2013-02-11 13:39:00,55.7,46.8,29.93,North,10,8.0,13.0,72,0.00,,,0.01,Wunderground v.1.15,2013-02-11 19:39:00,
2013-02-11 13:42:00,55.7,46.8,29.93,North,11,8.0,12.0,72,0.00,,,0.01,Wunderground v.1.15,2013-02-11 19:42:00,
2013-02-11 13:44:00,55.7,46.8,29.93,North,10,9.0,12.0,72,0.00,,,0.01,Wunderground v.1.15,2013-02-11 19:44:00,
2013-02-11 13:47:00,55.9,47.0,29.92,NNE,32,9.0,12.0,72,0.00,,,0.01,Wunderground v.1.15,2013-02-11 19:47:00,
2013-02-11 13:49:00,55.9,47.0,29.92,ENE,65,9.0,12.0,72,0.00,,,0.01,Wunderground v.1.15,2013-02-11 19:49:00,
2013-02-11 13:51:00,56.0,47.1,29.92,NNE,32,8.0,8.0,72,0.00,,,0.01,Wunderground v.1.15,2013-02-11 19:51:00,
2013-02-11 13:52:00,56.2,47.3,29.92,NNE,21,7.0,8.0,72,0.00,,,0.01,Wunderground v.1.15,2013-02-11 19:52:00,
2013-02-11 13:55:00,56.2,47.3,29.92,NE,47,6.0,8.0,72,0.00,,,0.01,Wunderground v.1.15,2013-02-11 19:55:00,
2013-02-11 13:56:00,56.2,47.3,29.92,North,10,7.0,8.0,72,0.00,,,0.01,Wunderground v.1.15,2013-02-11 19:56:00,
2013-02-11 14:00:00,56.2,47.3,29.92,NE,49,7.0,7.0,72,0.00,,,0.01,Wunderground v.1.15,2013-02-11 20:00:00,
2013-02-11 14:01:00,56.2,47.3,29.91,NE,40,7.0,11.0,72,0.00,,,0.01,Wunderground v.1.15,2013-02-11 20:01:00,
2013-02-11 14:02:00,56.2,47.3,29.91,NNE,27,7.0,11.0,72,0.00,,,0.01,Wunderground v.1.15,2013-02-11 20:02:00,
2013-02-11 14:04:00,56.2,47.3,29.91,East,79,7.0,11.0,72,0.00,,,0.01,Wunderground v.1.15,2013-02-11 20:04:00,
2013-02-11 14:07:00,56.2,47.3,29.91,ENE,68,6.0,11.0,72,0.00,,,0.01,Wunderground v.1.15,2013-02-11 20:07:00,
2013-02-11 14:09:00,56.3,47.4,29.91,ENE,71,6.0,11.0,72,0.00,,,0.01,Wunderground v.1.15,2013-02-11 20:09:00,
2013-02-11 14:10:00,56.3,47.4,29.91,NE,56,5.0,11.0,72,0.00,,,0.01,Wunderground v.1.15,2013-02-11 20:10:00,
2013-02-11 14:15:00,56.3,47.4,29.91,East,90,6.0,11.0,72,0.00,,,0.01,Wunderground v.1.15,2013-02-11 20:15:00,
2013-02-11 14:16:00,56.5,47.6,29.91,NE,45,6.0,11.0,72,0.00,,,0.01,Wunderground v.1.15,2013-02-11 20:16:00,
2013-02-11 14:18:00,56.3,47.4,29.91,ENE,73,6.0,11.0,72,0.00,,,0.01,Wunderground v.1.15,2013-02-11 20:18:00,
2013-02-11 14:22:00,56.5,47.6,29.91,North,11,6.0,8.0,72,0.00,,,0.01,Wunderground v.1.15,2013-02-11 20:22:00,
2013-02-11 14:23:00,56.3,47.4,29.91,ENE,58,6.0,8.0,72,0.00,,,0.01,Wunderground v.1.15,2013-02-11 20:23:00,
2013-02-11 14:26:00,56.5,47.6,29.91,NE,54,6.0,8.0,72,0.00,,,0.01,Wunderground v.1.15,2013-02-11 20:26:00,
2013-02-11 14:28:00,56.5,47.6,29.91,NE,55,5.0,8.0,72,0.00,,,0.01,Wunderground v.1.15,2013-02-11 20:28:00,
2013-02-11 14:29:00,56.5,47.6,29.91,East,82,4.0,8.0,72,0.00,,,0.01,Wunderground v.1.15,2013-02-11 20:29:00,
2013-02-11 14:32:00,56.6,47.7,29.90,ENE,71,4.0,4.0,72,0.00,,,0.01,Wunderground v.1.15,2013-02-11 20:32:00,
2013-02-11 14:35:00,56.5,47.6,29.90,North,353,3.0,7.0,72,0.00,,,0.01,Wunderground v.1.15,2013-02-11 20:35:00,
2013-02-11 14:38:00,56.5,47.2,29.90,ENE,59,4.0,7.0,71,0.00,,,0.01,Wunderground v.1.15,2013-02-11 20:38:00,
2013-02-11 14:39:00,56.5,47.2,29.90,NE,55,5.0,7.0,71,0.00,,,0.01,Wunderground v.1.15,2013-02-11 20:39:00,
2013-02-11 14:41:00,56.3,47.0,29.90,North,0,5.0,6.0,71,0.00,,,0.01,Wunderground v.1.15,2013-02-11 20:41:00,
2013-02-11 14:43:00,56.3,47.0,29.90,NNE,32,5.0,7.0,71,0.00,,,0.01,Wunderground v.1.15,2013-02-11 20:43:00,
2013-02-11 14:45:00,56.3,47.0,29.90,NE,48,6.0,8.0,71,0.00,,,0.01,Wunderground v.1.15,2013-02-11 20:45:00,
2013-02-11 14:46:00,56.3,47.0,29.90,ENE,68,6.0,8.0,71,0.00,,,0.01,Wunderground v.1.15,2013-02-11 20:46:00,
2013-02-11 14:48:00,56.3,47.4,29.90,NNE,32,6.0,8.0,72,0.00,,,0.01,Wunderground v.1.15,2013-02-11 20:48:00,
2013-02-11 14:49:00,56.3,47.4,29.90,NE,49,6.0,8.0,72,0.00,,,0.01,Wunderground v.1.15,2013-02-11 20:49:00,
2013-02-11 14:53:00,56.2,47.3,29.90,NNE,31,7.0,7.0,72,0.00,,,0.01,Wunderground v.1.15,2013-02-11 20:53:00,
2013-02-11 14:54:00,56.2,47.3,29.90,NE,34,7.0,7.0,72,0.00,,,0.01,Wunderground v.1.15,2013-02-11 20:54:00,
2013-02-11 14:55:00,56.3,47.4,29.90,NNE,16,6.0,7.0,72,0.00,,,0.01,Wunderground v.1.15,2013-02-11 20:55:00,
2013-02-11 14:58:00,56.3,47.4,29.90,NE,56,6.0,9.0,72,0.00,,,0.01,Wunderground v.1.15,2013-02-11 20:58:00,
2013-02-11 14:59:00,56.3,47.4,29.90,NE,55,6.0,9.0,72,0.00,,,0.01,Wunderground v.1.15,2013-02-11 20:59:00,
2013-02-11 15:01:00,56.3,47.4,29.89,NE,51,6.0,6.0,72,0.00,,,0.01,Wunderground v.1.15,2013-02-11 21:01:00,
2013-02-11 15:03:00,56.3,47.0,29.89,NE,52,6.0,6.0,71,0.00,,,0.01,Wunderground v.1.15,2013-02-11 21:03:00,
2013-02-11 15:05:00,56.3,47.0,29.89,North,6,6.0,7.0,71,0.00,,,0.01,Wunderground v.1.15,2013-02-11 21:05:00,
2013-02-11 15:07:00,56.3,47.0,29.89,ENE,62,6.0,7.0,71,0.00,,,0.01,Wunderground v.1.15,2013-02-11 21:07:00,
2013-02-11 15:08:00,56.3,47.0,29.89,NE,35,6.0,7.0,71,0.00,,,0.01,Wunderground v.1.15,2013-02-11 21:08:00,
2013-02-11 15:10:00,56.3,47.0,29.89,NE,35,6.0,8.0,71,0.00,,,0.01,Wunderground v.1.15,2013-02-11 21:10:00,
2013-02-11 15:11:00,56.2,46.9,29.89,ENE,76,6.0,12.0,71,0.00,,,0.01,Wunderground v.1.15,2013-02-11 21:11:00,
2013-02-11 15:14:00,56.0,46.7,29.89,ENE,65,7.0,12.0,71,0.00,,,0.01,Wunderground v.1.15,2013-02-11 21:14:00,
2013-02-11 15:16:00,56.0,46.7,29.88,ENE,76,7.0,12.0,71,0.00,,,0.01,Wunderground v.1.15,2013-02-11 21:16:00,
2013-02-11 15:18:00,56.0,46.7,29.88,ENE,69,7.0,12.0,71,0.00,,,0.01,Wunderground v.1.15,2013-02-11 21:18:00,
2013-02-11 15:20:00,56.0,46.7,29.88,NNE,27,7.0,12.0,71,0.00,,,0.01,Wunderground v.1.15,2013-02-11 21:20:00,
2013-02-11 15:22:00,56.0,46.7,29.88,ENE,62,7.0,12.0,71,0.00,,,0.01,Wunderground v.1.15,2013-02-11 21:22:00,
2013-02-11 15:23:00,56.0,46.7,29.88,NE,51,7.0,12.0,71,0.00,,,0.01,Wunderground v.1.15,2013-02-11 21:23:00,
2013-02-11 15:27:00,56.0,46.7,29.88,ENE,65,6.0,12.0,71,0.00,,,0.01,Wunderground v.1.15,2013-02-11 21:27:00,
2013-02-11 15:28:00,56.0,46.7,29.88,ENE,61,6.0,12.0,71,0.00,,,0.01,Wunderground v.1.15,2013-02-11 21:28:00,
2013-02-11 15:29:00,56.0,46.7,29.88,NE,54,6.0,12.0,71,0.00,,,0.01,Wunderground v.1.15,2013-02-11 21:29:00,
2013-02-11 15:32:00,56.0,46.7,29.89,ENE,66,5.0,6.0,71,0.00,,,0.01,Wunderground v.1.15,2013-02-11 21:32:00,
2013-02-11 15:33:00,56.0,46.7,29.89,ENE,66,5.0,6.0,71,0.00,,,0.01,Wunderground v.1.15,2013-02-11 21:33:00,
2013-02-11 15:35:00,56.0,46.7,29.89,NNE,30,5.0,10.0,71,0.00,,,0.01,Wunderground v.1.15,2013-02-11 21:35:00,
2013-02-11 15:38:00,56.0,46.7,29.89,North,0,5.0,12.0,71,0.00,,,0.01,Wunderground v.1.15,2013-02-11 21:38:00,
2013-02-11 15:39:00,55.9,47.0,29.89,ENE,61,6.0,12.0,72,0.00,,,0.01,Wunderground v.1.15,2013-02-11 21:39:00,
2013-02-11 15:41:00,55.9,47.0,29.89,NE,51,6.0,8.0,72,0.00,,,0.01,Wunderground v.1.15,2013-02-11 21:41:00,
2013-02-11 15:43:00,55.9,47.0,29.89,NE,48,7.0,11.0,72,0.00,,,0.01,Wunderground v.1.15,2013-02-11 21:43:00,
2013-02-11 15:44:00,55.9,47.0,29.89,NE,55,7.0,11.0,72,0.00,,,0.01,Wunderground v.1.15,2013-02-11 21:44:00,
2013-02-11 15:46:00,55.9,47.0,29.88,NE,54,7.0,11.0,72,0.00,,,0.01,Wunderground v.1.15,2013-02-11 21:46:00,
2013-02-11 15:49:00,55.9,47.0,29.88,North,0,7.0,11.0,72,0.00,,,0.01,Wunderground v.1.15,2013-02-11 21:49:00,
2013-02-11 15:51:00,55.9,47.0,29.88,NNE,31,7.0,8.0,72,0.00,,,0.01,Wunderground v.1.15,2013-02-11 21:51:00,
2013-02-11 15:55:00,55.7,46.8,29.88,ENE,64,7.0,10.0,72,0.00,,,0.01,Wunderground v.1.15,2013-02-11 21:55:00,
2013-02-11 15:56:00,55.7,46.8,29.88,NNE,24,7.0,10.0,72,0.00,,,0.01,Wunderground v.1.15,2013-02-11 21:56:00,
2013-02-11 15:57:00,55.7,46.8,29.88,NE,37,7.0,10.0,72,0.00,,,0.01,Wunderground v.1.15,2013-02-11 21:57:00,
2013-02-11 15:58:00,55.7,46.8,29.88,East,85,8.0,10.0,72,0.00,,,0.01,Wunderground v.1.15,2013-02-11 21:58:00,
2013-02-11 16:02:00,55.6,47.1,29.88,East,89,7.0,7.0,73,0.00,,,0.01,Wunderground v.1.15,2013-02-11 22:02:00,
2013-02-11 16:03:00,55.6,47.1,29.88,NE,45,7.0,7.0,73,0.00,,,0.01,Wunderground v.1.15,2013-02-11 22:03:00,
2013-02-11 16:04:00,55.6,47.1,29.88,ENE,61,6.0,7.0,73,0.00,,,0.01,Wunderground v.1.15,2013-02-11 22:04:00,
2013-02-11 16:08:00,55.6,47.1,29.88,NE,52,6.0,7.0,73,0.00,,,0.01,Wunderground v.1.15,2013-02-11 22:08:00,
2013-02-11 16:09:00,55.6,46.7,29.88,NNE,24,6.0,10.0,72,0.00,,,0.01,Wunderground v.1.15,2013-02-11 22:09:00,
2013-02-11 16:11:00,55.6,46.7,29.88,NE,48,6.0,6.0,72,0.00,,,0.01,Wunderground v.1.15,2013-02-11 22:11:00,
2013-02-11 16:13:00,55.6,47.1,29.88,NNE,30,6.0,6.0,73,0.00,,,0.01,Wunderground v.1.15,2013-02-11 22:13:00,
2013-02-11 16:17:00,55.6,47.1,29.88,North,357,6.0,8.0,73,0.00,,,0.01,Wunderground v.1.15,2013-02-11 22:17:00,
2013-02-11 16:18:00,55.6,47.1,29.88,NNE,16,6.0,9.0,73,0.00,,,0.01,Wunderground v.1.15,2013-02-11 22:18:00,
2013-02-11 16:20:00,55.4,46.9,29.88,NE,56,6.0,9.0,73,0.00,,,0.01,Wunderground v.1.15,2013-02-11 22:20:00,
2013-02-11 16:23:00,55.4,46.9,29.88,NE,40,6.0,8.0,73,0.00,,,0.01,Wunderground v.1.15,2013-02-11 22:23:00,
2013-02-11 16:26:00,55.4,46.9,29.88,NE,34,6.0,8.0,73,0.00,,,0.01,Wunderground v.1.15,2013-02-11 22:26:00,
2013-02-11 16:28:00,55.4,46.9,29.88,ENE,66,6.0,10.0,73,0.00,,,0.01,Wunderground v.1.15,2013-02-11 22:28:00,
2013-02-11 16:32:00,55.3,46.8,29.89,NE,49,6.0,6.0,73,0.00,,,0.01,Wunderground v.1.15,2013-02-11 22:32:00,
2013-02-11 16:34:00,55.3,46.8,29.89,NE,49,6.0,11.0,73,0.00,,,0.01,Wunderground v.1.15,2013-02-11 22:34:00,
2013-02-11 16:35:00,55.3,46.8,29.89,ENE,73,6.0,11.0,73,0.00,,,0.01,Wunderground v.1.15,2013-02-11 22:35:00,
2013-02-11 16:38:00,55.1,46.6,29.89,ENE,61,6.0,11.0,73,0.00,,,0.01,Wunderground v.1.15,2013-02-11 22:38:00,
2013-02-11 16:39:00,55.1,46.6,29.89,ENE,61,6.0,11.0,73,0.00,,,0.01,Wunderground v.1.15,2013-02-11 22:39:00,
2013-02-11 16:40:00,55.1,47.0,29.89,NNE,25,6.0,11.0,74,0.00,,,0.01,Wunderground v.1.15,2013-02-11 22:40:00,
2013-02-11 16:43:00,55.1,47.0,29.89,NE,37,6.0,12.0,74,0.00,,,0.01,Wunderground v.1.15,2013-02-11 22:43:00,
2013-02-11 16:46:00,55.1,47.0,29.90,NE,34,6.0,12.0,74,0.00,,,0.01,Wunderground v.1.15,2013-02-11 22:46:00,
2013-02-11 16:47:00,55.1,47.0,29.90,ENE,58,6.0,12.0,74,0.00,,,0.01,Wunderground v.1.15,2013-02-11 22:47:00,
2013-02-11 16:48:00,55.1,47.0,29.90,NE,40,6.0,12.0,74,0.00,,,0.01,Wunderground v.1.15,2013-02-11 22:48:00,
2013-02-11 16:49:00,55.1,47.0,29.90,NE,55,6.0,12.0,74,0.00,,,0.01,Wunderground v.1.15,2013-02-11 22:49:00,
2013-02-11 16:52:00,55.0,46.9,29.90,NE,42,7.0,12.0,74,0.00,,,0.01,Wunderground v.1.15,2013-02-11 22:52:00,
2013-02-11 16:53:00,55.0,46.9,29.90,ENE,64,7.0,12.0,74,0.00,,,0.01,Wunderground v.1.15,2013-02-11 22:53:00,
2013-02-11 16:57:00,55.0,46.9,29.90,NE,56,6.0,12.0,74,0.00,,,0.01,Wunderground v.1.15,2013-02-11 22:57:00,
2013-02-11 16:58:00,55.0,47.2,29.90,ENE,69,6.0,12.0,75,0.00,,,0.01,Wunderground v.1.15,2013-02-11 22:58:00,
2013-02-11 16:59:00,55.0,47.2,29.90,NE,51,6.0,12.0,75,0.00,,,0.01,Wunderground v.1.15,2013-02-11 22:59:00,
2013-02-11 17:00:00,54.8,47.0,29.90,ENE,62,6.0,6.0,75,0.00,,,0.01,Wunderground v.1.15,2013-02-11 23:00:00,
2013-02-11 17:05:00,54.8,47.0,29.90,NE,49,5.0,10.0,75,0.00,,,0.01,Wunderground v.1.15,2013-02-11 23:05:00,
2013-02-11 17:06:00,54.8,47.0,29.90,ENE,66,5.0,10.0,75,0.00,,,0.01,Wunderground v.1.15,2013-02-11 23:06:00,
2013-02-11 17:07:00,54.8,47.0,29.90,NE,54,5.0,10.0,75,0.00,,,0.01,Wunderground v.1.15,2013-02-11 23:07:00,
2013-02-11 17:11:00,54.7,46.9,29.90,NE,42,5.0,5.0,75,0.00,,,0.01,Wunderground v.1.15,2013-02-11 23:11:00,
2013-02-11 17:12:00,54.7,46.9,29.90,NE,49,5.0,8.0,75,0.00,,,0.01,Wunderground v.1.15,2013-02-11 23:12:00,
2013-02-11 17:13:00,54.5,46.7,29.90,NE,48,5.0,8.0,75,0.00,,,0.01,Wunderground v.1.15,2013-02-11 23:13:00,
2013-02-11 17:16:00,54.5,46.7,29.90,NE,44,6.0,9.0,75,0.00,,,0.01,Wunderground v.1.15,2013-02-11 23:16:00,
2013-02-11 17:18:00,54.5,46.7,29.90,ENE,64,6.0,9.0,75,0.00,,,0.01,Wunderground v.1.15,2013-02-11 23:18:00,
2013-02-11 17:21:00,54.4,46.6,29.90,NE,49,7.0,8.0,75,0.00,,,0.01,Wunderground v.1.15,2013-02-11 23:21:00,
2013-02-11 17:22:00,54.4,46.6,29.90,NE,35,7.0,8.0,75,0.00,,,0.01,Wunderground v.1.15,2013-02-11 23:22:00,
2013-02-11 17:23:00,54.4,46.6,29.90,NE,51,7.0,16.0,75,0.00,,,0.01,Wunderground v.1.15,2013-02-11 23:23:00,
2013-02-11 17:27:00,54.4,47.0,29.90,ENE,66,8.0,16.0,76,0.00,,,0.01,Wunderground v.1.15,2013-02-11 23:27:00,
2013-02-11 17:29:00,54.4,47.0,29.90,ENE,64,8.0,16.0,76,0.00,,,0.01,Wunderground v.1.15,2013-02-11 23:29:00,
2013-02-11 17:31:00,54.2,46.8,29.90,ENE,61,8.0,8.0,76,0.00,,,0.01,Wunderground v.1.15,2013-02-11 23:31:00,
2013-02-11 17:34:00,54.4,47.0,29.90,North,352,6.0,8.0,76,0.00,,,0.01,Wunderground v.1.15,2013-02-11 23:34:00,
2013-02-11 17:36:00,54.4,47.0,29.90,NE,49,5.0,8.0,76,0.00,,,0.01,Wunderground v.1.15,2013-02-11 23:36:00,
2013-02-11 17:37:00,54.4,47.0,29.90,NNE,27,5.0,8.0,76,0.00,,,0.01,Wunderground v.1.15,2013-02-11 23:37:00,
2013-02-11 17:38:00,54.4,47.0,29.90,NNE,28,5.0,8.0,76,0.00,,,0.01,Wunderground v.1.15,2013-02-11 23:38:00,
2013-02-11 17:40:00,54.2,46.8,29.90,NE,51,5.0,16.0,76,0.00,,,0.01,Wunderground v.1.15,2013-02-11 23:40:00,
2013-02-11 17:41:00,54.2,46.8,29.90,East,99,5.0,5.0,76,0.00,,,0.01,Wunderground v.1.15,2013-02-11 23:41:00,
2013-02-11 17:46:00,54.2,46.8,29.90,NE,38,6.0,14.0,76,0.00,,,0.01,Wunderground v.1.15,2013-02-11 23:46:00,
2013-02-11 17:47:00,54.2,46.8,29.90,NE,40,7.0,14.0,76,0.00,,,0.01,Wunderground v.1.15,2013-02-11 23:47:00,
2013-02-11 17:48:00,54.1,46.7,29.90,North,350,7.0,14.0,76,0.00,,,0.01,Wunderground v.1.15,2013-02-11 23:48:00,
2013-02-11 17:49:00,54.1,46.7,29.90,NNE,30,7.0,14.0,76,0.00,,,0.01,Wunderground v.1.15,2013-02-11 23:49:00,
2013-02-11 17:52:00,54.1,47.0,29.90,East,89,7.0,9.0,77,0.00,,,0.01,Wunderground v.1.15,2013-02-11 23:52:00,
2013-02-11 17:54:00,54.1,47.0,29.90,ENE,61,7.0,9.0,77,0.00,,,0.01,Wunderground v.1.15,2013-02-11 23:54:00,
2013-02-11 17:55:00,54.1,47.0,29.90,NE,37,7.0,9.0,77,0.00,,,0.01,Wunderground v.1.15,2013-02-11 23:55:00,
2013-02-11 17:56:00,54.1,47.0,29.90,NNE,27,7.0,9.0,77,0.00,,,0.01,Wunderground v.1.15,2013-02-11 23:56:00,
2013-02-11 18:02:00,54.1,47.0,29.90,East,80,6.0,6.0,77,0.00,,,0.01,Wunderground v.1.15,2013-02-12 00:02:00,
2013-02-11 18:04:00,54.1,47.0,29.90,NE,42,6.0,13.0,77,0.00,,,0.01,Wunderground v.1.15,2013-02-12 00:04:00,
2013-02-11 18:06:00,53.9,46.9,29.90,ENE,58,7.0,13.0,77,0.00,,,0.01,Wunderground v.1.15,2013-02-12 00:06:00,
2013-02-11 18:07:00,53.9,46.9,29.90,North,8,7.0,13.0,77,0.00,,,0.01,Wunderground v.1.15,2013-02-12 00:07:00,
2013-02-11 18:08:00,53.9,46.9,29.90,NNE,16,7.0,13.0,77,0.00,,,0.01,Wunderground v.1.15,2013-02-12 00:08:00,
2013-02-11 18:13:00,53.8,47.1,29.90,NNE,30,8.0,9.0,78,0.00,,,0.01,Wunderground v.1.15,2013-02-12 00:13:00,
2013-02-11 18:14:00,53.8,46.8,29.90,NE,54,8.0,9.0,77,0.00,,,0.01,Wunderground v.1.15,2013-02-12 00:14:00,
2013-02-11 18:17:00,53.8,47.1,29.90,NNE,21,7.0,9.0,78,0.00,,,0.01,Wunderground v.1.15,2013-02-12 00:17:00,
2013-02-11 18:22:00,53.8,47.1,29.90,ENE,62,7.0,11.0,78,0.00,,,0.01,Wunderground v.1.15,2013-02-12 00:22:00,
2013-02-11 18:25:00,53.6,46.9,29.90,NE,44,7.0,11.0,78,0.00,,,0.01,Wunderground v.1.15,2013-02-12 00:25:00,
2013-02-11 18:26:00,53.6,46.9,29.90,NE,35,7.0,11.0,78,0.00,,,0.01,Wunderground v.1.15,2013-02-12 00:26:00,
2013-02-11 18:28:00,53.6,46.9,29.90,ENE,58,7.0,11.0,78,0.00,,,0.01,Wunderground v.1.15,2013-02-12 00:28:00,
2013-02-11 18:31:00,53.6,46.9,29.90,NE,51,8.0,8.0,78,0.00,,,0.01,Wunderground v.1.15,2013-02-12 00:31:00,
2013-02-11 18:32:00,53.6,46.9,29.90,North,6,8.0,8.0,78,0.00,,,0.01,Wunderground v.1.15,2013-02-12 00:32:00,
2013-02-11 18:35:00,53.6,46.9,29.90,NE,48,7.0,8.0,78,0.00,,,0.01,Wunderground v.1.15,2013-02-12 00:35:00,
2013-02-11 18:36:00,53.6,46.9,29.90,NE,44,7.0,13.0,78,0.00,,,0.01,Wunderground v.1.15,2013-02-12 00:36:00,
2013-02-11 18:38:00,53.6,46.9,29.90,ENE,64,7.0,13.0,78,0.00,,,0.01,Wunderground v.1.15,2013-02-12 00:38:00,
2013-02-11 18:39:00,53.6,46.9,29.90,NE,56,7.0,13.0,78,0.00,,,0.01,Wunderground v.1.15,2013-02-12 00:39:00,
2013-02-11 18:41:00,53.6,47.2,29.90,NE,54,6.0,6.0,79,0.00,,,0.01,Wunderground v.1.15,2013-02-12 00:41:00,
2013-02-11 18:44:00,53.6,47.2,29.90,NE,45,7.0,12.0,79,0.00,,,0.01,Wunderground v.1.15,2013-02-12 00:44:00,
2013-02-11 18:45:00,53.6,47.2,29.90,NNE,16,7.0,12.0,79,0.00,,,0.01,Wunderground v.1.15,2013-02-12 00:45:00,
2013-02-11 18:46:00,53.6,47.2,29.90,ENE,78,7.0,12.0,79,0.00,,,0.01,Wunderground v.1.15,2013-02-12 00:46:00,
2013-02-11 18:47:00,53.6,47.2,29.90,NNE,30,7.0,12.0,79,0.00,,,0.01,Wunderground v.1.15,2013-02-12 00:47:00,
2013-02-11 18:50:00,53.5,47.1,29.90,ENE,76,7.0,12.0,79,0.00,,,0.01,Wunderground v.1.15,2013-02-12 00:50:00,
2013-02-11 18:51:00,53.5,47.1,29.90,ENE,64,7.0,7.0,79,0.00,,,0.01,Wunderground v.1.15,2013-02-12 00:51:00,
2013-02-11 18:54:00,53.5,47.1,29.90,NE,42,6.0,10.0,79,0.00,,,0.01,Wunderground v.1.15,2013-02-12 00:54:00,
2013-02-11 18:56:00,53.5,47.1,29.90,NE,54,7.0,18.0,79,0.00,,,0.01,Wunderground v.1.15,2013-02-12 00:56:00,
2013-02-11 18:58:00,53.5,47.1,29.90,NE,52,7.0,18.0,79,0.00,,,0.01,Wunderground v.1.15,2013-02-12 00:58:00,
2013-02-11 18:59:00,53.5,47.1,29.90,North,0,7.0,18.0,79,0.00,,,0.01,Wunderground v.1.15,2013-02-12 00:59:00,
2013-02-11 19:00:00,53.5,47.1,29.90,ENE,62,8.0,8.0,79,0.00,,,0.01,Wunderground v.1.15,2013-02-12 01:00:00,
2013-02-11 19:01:00,53.5,47.1,29.90,ENE,75,8.0,8.0,79,0.00,,,0.01,Wunderground v.1.15,2013-02-12 01:01:00,
2013-02-11 19:06:00,53.5,47.1,29.90,East,88,8.0,8.0,79,0.00,,,0.01,Wunderground v.1.15,2013-02-12 01:06:00,
2013-02-11 19:07:00,53.5,47.1,29.90,NE,55,7.0,8.0,79,0.00,,,0.01,Wunderground v.1.15,2013-02-12 01:07:00,
2013-02-11 19:08:00,53.5,47.1,29.90,ENE,71,7.0,8.0,79,0.00,,,0.01,Wunderground v.1.15,2013-02-12 01:08:00,
2013-02-11 19:11:00,53.3,47.3,29.90,NE,37,7.0,7.0,80,0.00,,,0.01,Wunderground v.1.15,2013-02-12 01:11:00,
2013-02-11 19:13:00,53.3,47.3,29.90,East,83,7.0,12.0,80,0.00,,,0.01,Wunderground v.1.15,2013-02-12 01:13:00,
2013-02-11 19:14:00,53.3,47.3,29.90,NE,52,7.0,12.0,80,0.00,,,0.01,Wunderground v.1.15,2013-02-12 01:14:00,
2013-02-11 19:16:00,53.3,47.3,29.90,NE,47,6.0,12.0,80,0.00,,,0.01,Wunderground v.1.15,2013-02-12 01:16:00,
2013-02-11 19:18:00,53.3,47.3,29.90,NE,51,6.0,12.0,80,0.00,,,0.01,Wunderground v.1.15,2013-02-12 01:18:00,
2013-02-11 19:19:00,53.3,47.3,29.90,NNE,31,6.0,12.0,80,0.00,,,0.01,Wunderground v.1.15,2013-02-12 01:19:00,
2013-02-11 19:23:00,53.3,47.3,29.90,ENE,73,6.0,6.0,80,0.00,,,0.01,Wunderground v.1.15,2013-02-12 01:23:00,
2013-02-11 19:25:00,53.2,47.2,29.90,ENE,73,6.0,10.0,80,0.00,,,0.01,Wunderground v.1.15,2013-02-12 01:25:00,
2013-02-11 19:28:00,53.2,47.2,29.90,NE,52,5.0,10.0,80,0.00,,,0.01,Wunderground v.1.15,2013-02-12 01:28:00,
2013-02-11 19:30:00,53.2,47.2,29.90,NE,41,5.0,5.0,80,0.00,,,0.01,Wunderground v.1.15,2013-02-12 01:30:00,
2013-02-11 19:31:00,53.2,47.2,29.90,NE,42,5.0,5.0,80,0.00,,,0.01,Wunderground v.1.15,2013-02-12 01:31:00,
2013-02-11 19:33:00,53.2,47.2,29.90,NE,52,5.0,6.0,80,0.00,,,0.01,Wunderground v.1.15,2013-02-12 01:33:00,
2013-02-11 19:36:00,53.2,47.2,29.90,East,93,5.0,11.0,80,0.00,,,0.01,Wunderground v.1.15,2013-02-12 01:36:00,
2013-02-11 19:37:00,53.2,47.5,29.90,ENE,73,5.0,11.0,81,0.00,,,0.01,Wunderground v.1.15,2013-02-12 01:37:00,
2013-02-11 19:38:00,53.2,47.5,29.90,NE,37,6.0,11.0,81,0.00,,,0.01,Wunderground v.1.15,2013-02-12 01:38:00,
2013-02-11 19:39:00,53.2,47.5,29.90,NE,54,6.0,11.0,81,0.00,,,0.01,Wunderground v.1.15,2013-02-12 01:39:00,
2013-02-11 19:44:00,53.2,47.5,29.90,ENE,61,7.0,13.0,81,0.00,,,0.01,Wunderground v.1.15,2013-02-12 01:44:00,
2013-02-11 19:45:00,53.2,47.5,29.90,NE,45,7.0,13.0,81,0.00,,,0.01,Wunderground v.1.15,2013-02-12 01:45:00,
2013-02-11 19:46:00,53.2,47.5,29.89,ENE,58,7.0,13.0,81,0.00,,,0.01,Wunderground v.1.15,2013-02-12 01:46:00,
2013-02-11 19:47:00,53.2,47.5,29.89,East,80,6.0,13.0,81,0.00,,,0.01,Wunderground v.1.15,2013-02-12 01:47:00,
2013-02-11 19:50:00,53.2,47.5,29.89,ENE,61,6.0,6.0,81,0.00,,,0.01,Wunderground v.1.15,2013-02-12 01:50:00,
2013-02-11 19:51:00,53.2,47.5,29.89,ENE,68,6.0,6.0,81,0.00,,,0.01,Wunderground v.1.15,2013-02-12 01:51:00,
2013-02-11 19:52:00,53.2,47.5,29.89,NNE,25,6.0,6.0,81,0.00,,,0.01,Wunderground v.1.15,2013-02-12 01:52:00,
2013-02-11 19:55:00,53.2,47.8,29.89,NNE,21,5.0,6.0,82,0.00,,,0.01,Wunderground v.1.15,2013-02-12 01:55:00,
2013-02-11 19:57:00,53.2,47.8,29.89,NE,49,5.0,9.0,82,0.00,,,0.01,Wunderground v.1.15,2013-02-12 01:57:00,
2013-02-11 19:58:00,53.2,47.8,29.89,North,0,5.0,9.0,82,0.00,,,0.01,Wunderground v.1.15,2013-02-12 01:58:00,
2013-02-11 20:02:00,53.1,47.7,29.90,NNE,14,6.0,7.0,82,0.00,,,0.01,Wunderground v.1.15,2013-02-12 02:02:00,
2013-02-11 20:04:00,53.1,47.7,29.90,NE,52,7.0,14.0,82,0.00,,,0.01,Wunderground v.1.15,2013-02-12 02:04:00,
2013-02-11 20:07:00,52.9,47.6,29.90,NE,55,6.0,14.0,82,0.00,,,0.01,Wunderground v.1.15,2013-02-12 02:07:00,
2013-02-11 20:08:00,52.9,47.6,29.90,ENE,62,6.0,14.0,82,0.00,,,0.01,Wunderground v.1.15,2013-02-12 02:08:00,
2013-02-11 20:10:00,52.9,47.9,29.90,ENE,66,6.0,7.0,83,0.00,,,0.01,Wunderground v.1.15,2013-02-12 02:10:00,
2013-02-11 20:14:00,52.9,47.9,29.90,ENE,61,6.0,10.0,83,0.00,,,0.01,Wunderground v.1.15,2013-02-12 02:14:00,
2013-02-11 20:16:00,52.9,47.9,29.90,ENE,58,6.0,10.0,83,0.00,,,0.01,Wunderground v.1.15,2013-02-12 02:16:00,
2013-02-11 20:18:00,52.9,47.9,29.90,ENE,64,7.0,10.0,83,0.00,,,0.01,Wunderground v.1.15,2013-02-12 02:18:00,
2013-02-11 20:20:00,52.8,47.8,29.90,NNE,14,7.0,7.0,83,0.00,,,0.01,Wunderground v.1.15,2013-02-12 02:20:00,
2013-02-11 20:23:00,52.8,48.1,29.90,NE,51,7.0,11.0,84,0.00,,,0.01,Wunderground v.1.15,2013-02-12 02:23:00,
2013-02-11 20:24:00,52.8,48.1,29.90,ENE,72,7.0,11.0,84,0.00,,,0.01,Wunderground v.1.15,2013-02-12 02:24:00,
2013-02-11 20:26:00,52.8,48.1,29.90,ENE,68,7.0,11.0,84,0.00,,,0.01,Wunderground v.1.15,2013-02-12 02:26:00,
2013-02-11 20:27:00,52.8,48.1,29.90,ENE,59,7.0,11.0,84,0.00,,,0.01,Wunderground v.1.15,2013-02-12 02:27:00,
2013-02-11 20:29:00,52.8,48.1,29.90,NE,47,7.0,11.0,84,0.00,,,0.01,Wunderground v.1.15,2013-02-12 02:29:00,
2013-02-11 20:32:00,52.8,48.4,29.90,ENE,66,6.0,6.0,85,0.00,,,0.01,Wunderground v.1.15,2013-02-12 02:32:00,
2013-02-11 20:33:00,52.6,48.2,29.90,NE,56,6.0,11.0,85,0.00,,,0.01,Wunderground v.1.15,2013-02-12 02:33:00,
2013-02-11 20:34:00,52.6,48.2,29.90,ENE,76,6.0,12.0,85,0.00,,,0.01,Wunderground v.1.15,2013-02-12 02:34:00,
2013-02-11 20:35:00,52.6,48.2,29.90,ENE,65,6.0,12.0,85,0.00,,,0.01,Wunderground v.1.15,2013-02-12 02:35:00,
2013-02-11 20:39:00,52.6,48.2,29.90,NE,48,7.0,12.0,85,0.00,,,0.01,Wunderground v.1.15,2013-02-12 02:39:00,
2013-02-11 20:42:00,52.5,48.4,29.90,ENE,62,7.0,8.0,86,0.00,,,0.01,Wunderground v.1.15,2013-02-12 02:42:00,
2013-02-11 20:43:00,52.5,48.4,29.90,NE,45,7.0,8.0,86,0.00,,,0.01,Wunderground v.1.15,2013-02-12 02:43:00,
2013-02-11 20:44:00,52.5,48.4,29.90,ENE,68,7.0,12.0,86,0.00,,,0.01,Wunderground v.1.15,2013-02-12 02:44:00,
2013-02-11 20:46:00,52.5,48.4,29.90,NNE,16,7.0,12.0,86,0.00,,,0.01,Wunderground v.1.15,2013-02-12 02:46:00,
2013-02-11 20:49:00,52.5,48.4,29.90,ENE,69,6.0,12.0,86,0.00,,,0.01,Wunderground v.1.15,2013-02-12 02:49:00,
2013-02-11 20:51:00,52.5,48.4,29.90,NE,48,6.0,12.0,86,0.00,,,0.01,Wunderground v.1.15,2013-02-12 02:51:00,
2013-02-11 20:55:00,52.3,48.2,29.90,NE,42,6.0,13.0,86,0.00,,,0.01,Wunderground v.1.15,2013-02-12 02:55:00,
2013-02-11 20:57:00,52.3,48.2,29.90,East,79,7.0,13.0,86,0.00,,,0.01,Wunderground v.1.15,2013-02-12 02:57:00,
2013-02-11 20:58:00,52.3,48.5,29.90,ESE,112,6.0,13.0,87,0.00,,,0.01,Wunderground v.1.15,2013-02-12 02:58:00,
2013-02-11 20:59:00,52.3,48.2,29.90,NE,54,6.0,20.0,86,0.00,,,0.01,Wunderground v.1.15,2013-02-12 02:59:00,
2013-02-11 21:03:00,52.3,48.5,29.90,ENE,78,6.0,11.0,87,0.00,,,0.01,Wunderground v.1.15,2013-02-12 03:03:00,
2013-02-11 21:04:00,52.3,48.5,29.90,ENE,72,6.0,11.0,87,0.00,,,0.01,Wunderground v.1.15,2013-02-12 03:04:00,
2013-02-11 21:05:00,52.3,48.5,29.90,NE,45,6.0,11.0,87,0.00,,,0.01,Wunderground v.1.15,2013-02-12 03:05:00,
2013-02-11 21:11:00,52.2,48.4,29.90,ENE,66,6.0,7.0,87,0.00,,,0.01,Wunderground v.1.15,2013-02-12 03:11:00,
2013-02-11 21:12:00,52.2,48.4,29.90,ENE,76,6.0,7.0,87,0.00,,,0.01,Wunderground v.1.15,2013-02-12 03:12:00,
2013-02-11 21:14:00,52.2,48.8,29.90,NE,42,6.0,7.0,88,0.00,,,0.01,Wunderground v.1.15,2013-02-12 03:14:00,
2013-02-11 21:17:00,52.2,48.8,29.90,NE,35,5.0,8.0,88,0.00,,,0.01,Wunderground v.1.15,2013-02-12 03:17:00,
2013-02-11 21:19:00,52.2,48.8,29.90,NE,37,5.0,11.0,88,0.00,,,0.01,Wunderground v.1.15,2013-02-12 03:19:00,
2013-02-11 21:21:00,52.0,48.6,29.90,ENE,72,5.0,7.0,88,0.00,,,0.01,Wunderground v.1.15,2013-02-12 03:21:00,
2013-02-11 21:22:00,52.0,48.6,29.90,NE,56,5.0,7.0,88,0.00,,,0.01,Wunderground v.1.15,2013-02-12 03:22:00,
2013-02-11 21:24:00,52.0,48.6,29.90,ENE,58,5.0,7.0,88,0.00,,,0.01,Wunderground v.1.15,2013-02-12 03:24:00,
2013-02-11 21:25:00,52.0,48.6,29.90,NNE,27,5.0,7.0,88,0.00,,,0.01,Wunderground v.1.15,2013-02-12 03:25:00,
2013-02-11 21:27:00,52.0,48.9,29.90,NE,54,6.0,7.0,89,0.00,,,0.01,Wunderground v.1.15,2013-02-12 03:27:00,
2013-02-11 21:29:00,52.0,48.9,29.90,NE,49,5.0,7.0,89,0.00,,,0.01,Wunderground v.1.15,2013-02-12 03:29:00,
2013-02-11 21:30:00,52.0,48.9,29.90,NE,35,5.0,7.0,89,0.00,,,0.01,Wunderground v.1.15,2013-02-12 03:30:00,
2013-02-11 21:34:00,51.9,48.8,29.90,ENE,69,5.0,5.0,89,0.00,,,0.01,Wunderground v.1.15,2013-02-12 03:34:00,
2013-02-11 21:36:00,51.9,48.8,29.90,NE,49,5.0,5.0,89,0.00,,,0.01,Wunderground v.1.15,2013-02-12 03:36:00,
2013-02-11 21:37:00,51.9,48.8,29.90,ENE,58,5.0,9.0,89,0.00,,,0.01,Wunderground v.1.15,2013-02-12 03:37:00,
2013-02-11 21:39:00,51.9,48.8,29.90,East,82,5.0,9.0,89,0.00,,,0.01,Wunderground v.1.15,2013-02-12 03:39:00,
2013-02-11 21:42:00,51.9,48.8,29.90,ENE,66,5.0,6.0,89,0.00,,,0.01,Wunderground v.1.15,2013-02-12 03:42:00,
2013-02-11 21:44:00,51.9,48.8,29.90,North,0,5.0,6.0,89,0.00,,,0.01,Wunderground v.1.15,2013-02-12 03:44:00,
2013-02-11 21:45:00,51.9,49.1,29.90,ENE,58,5.0,6.0,90,0.00,,,0.01,Wunderground v.1.15,2013-02-12 03:45:00,
2013-02-11 21:46:00,51.9,49.1,29.90,ENE,65,5.0,6.0,90,0.00,,,0.01,Wunderground v.1.15,2013-02-12 03:46:00,
2013-02-11 21:48:00,51.7,48.9,29.90,NE,54,5.0,7.0,90,0.00,,,0.01,Wunderground v.1.15,2013-02-12 03:48:00,
2013-02-11 21:49:00,51.7,48.9,29.90,NE,42,5.0,7.0,90,0.00,,,0.01,Wunderground v.1.15,2013-02-12 03:49:00,
2013-02-11 21:53:00,51.7,48.9,29.90,NNE,20,6.0,7.0,90,0.00,,,0.01,Wunderground v.1.15,2013-02-12 03:53:00,
2013-02-11 21:54:00,51.7,48.9,29.90,ENE,61,6.0,7.0,90,0.00,,,0.01,Wunderground v.1.15,2013-02-12 03:54:00,
2013-02-11 21:55:00,51.6,48.8,29.90,NE,34,6.0,7.0,90,0.00,,,0.01,Wunderground v.1.15,2013-02-12 03:55:00,
2013-02-11 21:58:00,51.6,49.1,29.90,ENE,61,6.0,7.0,91,0.00,,,0.01,Wunderground v.1.15,2013-02-12 03:58:00,
2013-02-11 22:00:00,51.6,49.1,29.90,ENE,76,5.0,5.0,91,0.00,,,0.01,Wunderground v.1.15,2013-02-12 04:00:00,
2013-02-11 22:02:00,51.6,49.1,29.90,ENE,66,5.0,6.0,91,0.00,,,0.01,Wunderground v.1.15,2013-02-12 04:02:00,
2013-02-11 22:03:00,51.6,49.1,29.90,ENE,73,5.0,6.0,91,0.00,,,0.01,Wunderground v.1.15,2013-02-12 04:03:00,
2013-02-11 22:07:00,51.4,48.9,29.90,ENE,65,5.0,8.0,91,0.00,,,0.01,Wunderground v.1.15,2013-02-12 04:07:00,
2013-02-11 22:08:00,51.4,48.9,29.90,ENE,64,5.0,8.0,91,0.00,,,0.01,Wunderground v.1.15,2013-02-12 04:08:00,
2013-02-11 22:09:00,51.4,48.9,29.90,ENE,65,5.0,8.0,91,0.00,,,0.01,Wunderground v.1.15,2013-02-12 04:09:00,
2013-02-11 22:10:00,51.4,49.2,29.90,ENE,76,5.0,5.0,92,0.00,,,0.01,Wunderground v.1.15,2013-02-12 04:10:00,
2013-02-11 22:13:00,51.4,49.2,29.90,East,92,6.0,10.0,92,0.00,,,0.01,Wunderground v.1.15,2013-02-12 04:13:00,
2013-02-11 22:14:00,51.3,49.1,29.90,East,82,6.0,10.0,92,0.00,,,0.01,Wunderground v.1.15,2013-02-12 04:14:00,
2013-02-11 22:16:00,51.3,49.1,29.90,NE,47,6.0,10.0,92,0.00,,,0.01,Wunderground v.1.15,2013-02-12 04:16:00,
2013-02-11 22:19:00,51.3,49.1,29.90,East,80,6.0,10.0,92,0.00,,,0.01,Wunderground v.1.15,2013-02-12 04:19:00,
2013-02-11 22:21:00,51.3,49.1,29.90,NE,40,6.0,7.0,92,0.00,,,0.01,Wunderground v.1.15,2013-02-12 04:21:00,
2013-02-11 22:23:00,51.3,49.1,29.90,ENE,73,5.0,7.0,92,0.00,,,0.01,Wunderground v.1.15,2013-02-12 04:23:00,
2013-02-11 22:26:00,51.3,49.1,29.90,NE,52,4.0,7.0,92,0.00,,,0.01,Wunderground v.1.15,2013-02-12 04:26:00,
2013-02-11 22:28:00,51.3,49.1,29.90,ENE,58,5.0,7.0,92,0.00,,,0.01,Wunderground v.1.15,2013-02-12 04:28:00,
2013-02-11 22:30:00,51.3,49.3,29.90,East,99,5.0,8.0,93,0.00,,,0.01,Wunderground v.1.15,2013-02-12 04:30:00,
2013-02-11 22:34:00,51.1,49.1,29.90,NE,51,5.0,8.0,93,0.00,,,0.01,Wunderground v.1.15,2013-02-12 04:34:00,
2013-02-11 22:35:00,51.1,49.1,29.90,ENE,76,6.0,8.0,93,0.00,,,0.01,Wunderground v.1.15,2013-02-12 04:35:00,
2013-02-11 22:36:00,51.1,49.1,29.90,East,93,6.0,8.0,93,0.00,,,0.01,Wunderground v.1.15,2013-02-12 04:36:00,
2013-02-11 22:41:00,51.1,49.1,29.90,ENE,62,5.0,8.0,93,0.00,,,0.01,Wunderground v.1.15,2013-02-12 04:41:00,
2013-02-11 22:42:00,51.1,49.1,29.90,NE,48,5.0,8.0,93,0.00,,,0.01,Wunderground v.1.15,2013-02-12 04:42:00,
2013-02-11 22:45:00,51.1,49.1,29.90,NE,41,4.0,8.0,93,0.00,,,0.01,Wunderground v.1.15,2013-02-12 04:45:00,
2013-02-11 22:47:00,51.1,49.1,29.90,ENE,58,4.0,8.0,93,0.00,,,0.01,Wunderground v.1.15,2013-02-12 04:47:00,
2013-02-11 22:49:00,51.1,49.4,29.90,ENE,78,4.0,8.0,94,0.00,,,0.01,Wunderground v.1.15,2013-02-12 04:49:00,
2013-02-11 22:52:00,51.1,49.4,29.90,ENE,65,4.0,5.0,94,0.00,,,0.01,Wunderground v.1.15,2013-02-12 04:52:00,
2013-02-11 22:54:00,51.1,49.4,29.90,East,92,5.0,5.0,94,0.00,,,0.01,Wunderground v.1.15,2013-02-12 04:54:00,
2013-02-11 22:57:00,51.1,49.4,29.90,ENE,72,4.0,7.0,94,0.00,,,0.01,Wunderground v.1.15,2013-02-12 04:57:00,
2013-02-11 22:59:00,51.1,49.4,29.90,NNE,14,5.0,7.0,94,0.00,,,0.01,Wunderground v.1.15,2013-02-12 04:59:00,
2013-02-11 23:00:00,51.1,49.4,29.90,East,86,5.0,5.0,94,0.00,,,0.01,Wunderground v.1.15,2013-02-12 05:00:00,
2013-02-11 23:01:00,51.0,49.3,29.90,East,85,5.0,5.0,94,0.00,,,0.01,Wunderground v.1.15,2013-02-12 05:01:00,
2013-02-11 23:03:00,51.0,49.3,29.90,ENE,58,4.0,5.0,94,0.00,,,0.01,Wunderground v.1.15,2013-02-12 05:03:00,
2013-02-11 23:05:00,51.0,49.3,29.90,NE,42,4.0,5.0,94,0.00,,,0.01,Wunderground v.1.15,2013-02-12 05:05:00,
2013-02-11 23:06:00,51.0,49.3,29.90,NNE,32,4.0,6.0,94,0.00,,,0.01,Wunderground v.1.15,2013-02-12 05:06:00,
2013-02-11 23:10:00,50.8,49.1,29.90,NNE,23,4.0,11.0,94,0.00,,,0.01,Wunderground v.1.15,2013-02-12 05:10:00,
2013-02-11 23:11:00,50.8,49.1,29.90,NE,34,4.0,11.0,94,0.00,,,0.01,Wunderground v.1.15,2013-02-12 05:11:00,
2013-02-11 23:12:00,50.8,49.1,29.90,ENE,64,5.0,11.0,94,0.00,,,0.01,Wunderground v.1.15,2013-02-12 05:12:00,
2013-02-11 23:16:00,50.8,49.1,29.89,ENE,58,6.0,13.0,94,0.00,,,0.01,Wunderground v.1.15,2013-02-12 05:16:00,
2013-02-11 23:17:00,50.8,49.1,29.89,ENE,64,6.0,13.0,94,0.00,,,0.01,Wunderground v.1.15,2013-02-12 05:17:00,
2013-02-11 23:18:00,50.7,49.0,29.89,ENE,76,6.0,13.0,94,0.00,,,0.01,Wunderground v.1.15,2013-02-12 05:18:00,
2013-02-11 23:22:00,50.7,49.0,29.89,East,90,6.0,6.0,94,0.00,,,0.01,Wunderground v.1.15,2013-02-12 05:22:00,
2013-02-11 23:23:00,50.7,49.0,29.89,ENE,68,6.0,6.0,94,0.00,,,0.01,Wunderground v.1.15,2013-02-12 05:23:00,
2013-02-11 23:24:00,50.7,49.0,29.89,ENE,68,6.0,6.0,94,0.00,,,0.01,Wunderground v.1.15,2013-02-12 05:24:00,
2013-02-11 23:28:00,50.7,49.3,29.89,NE,47,4.0,6.0,95,0.00,,,0.01,Wunderground v.1.15,2013-02-12 05:28:00,
2013-02-11 23:29:00,50.7,49.3,29.89,East,97,4.0,7.0,95,0.00,,,0.01,Wunderground v.1.15,2013-02-12 05:29:00,
2013-02-11 23:31:00,50.7,49.3,29.90,ENE,65,4.0,4.0,95,0.00,,,0.01,Wunderground v.1.15,2013-02-12 05:31:00,
2013-02-11 23:36:00,50.7,49.3,29.90,ENE,66,4.0,6.0,95,0.00,,,0.01,Wunderground v.1.15,2013-02-12 05:36:00,
2013-02-11 23:39:00,50.7,49.3,29.90,ESE,109,4.0,6.0,95,0.00,,,0.01,Wunderground v.1.15,2013-02-12 05:39:00,
2013-02-11 23:40:00,50.7,49.3,29.90,East,89,4.0,4.0,95,0.00,,,0.01,Wunderground v.1.15,2013-02-12 05:40:00,
2013-02-11 23:41:00,50.7,49.3,29.90,ENE,73,4.0,6.0,95,0.00,,,0.01,Wunderground v.1.15,2013-02-12 05:41:00,
2013-02-11 23:42:00,50.7,49.3,29.90,ENE,73,4.0,6.0,95,0.00,,,0.01,Wunderground v.1.15,2013-02-12 05:42:00,
2013-02-11 23:45:00,50.7,49.3,29.90,East,83,4.0,6.0,95,0.00,,,0.01,Wunderground v.1.15,2013-02-12 05:45:00,
2013-02-11 23:48:00,50.7,49.3,29.89,ENE,62,4.0,6.0,95,0.00,,,0.01,Wunderground v.1.15,2013-02-12 05:48:00,
2013-02-11 23:50:00,50.7,49.3,29.89,ENE,66,4.0,4.0,95,0.00,,,0.01,Wunderground v.1.15,2013-02-12 05:50:00,
2013-02-11 23:52:00,50.7,49.3,29.89,East,93,4.0,4.0,95,0.00,,,0.01,Wunderground v.1.15,2013-02-12 05:52:00,
2013-02-11 23:54:00,50.7,49.3,29.89,ENE,71,5.0,7.0,95,0.00,,,0.01,Wunderground v.1.15,2013-02-12 05:54:00,
2013-02-11 23:57:00,50.7,49.3,29.89,ENE,78,5.0,7.0,95,0.00,,,0.01,Wunderground v.1.15,2013-02-12 05:57:00,
2013-02-11 23:58:00,50.7,49.3,29.89,East,79,4.0,7.0,95,0.00,,,0.01,Wunderground v.1.15,2013-02-12 05:58:00,
2013-02-11 23:59:00,50.7,49.3,29.89,ENE,78,4.0,7.0,95,0.00,,,0.01,Wunderground v.1.15,2013-02-12 05:59:00,